Wetterdaten: Sonntag, 10.03.2019
Datum Zeit Temp. Aussen Temp. o. S. +5cm Feuchte Auss Luftdruck Regen Sonnenschein Regendauer Solar Windben Empfang
10.03.2019 00:00 8,4 C 7,8 C 7,2 C 79 % 1012,6 hPa 0,0 l/m 0 min 0 min 0 W/m 9,7 km/h (2 Bft) 100,00 %
10.03.2019 00:02 8,4 C 7,8 C 6,7 C 79 % 1012,6 hPa 0,0 l/m 0 min 0 min 0 W/m 9,7 km/h (2 Bft) 97,62 %
10.03.2019 00:04 8,4 C 7,8 C 7,2 C 80 % 1012,5 hPa 0,0 l/m 0 min 0 min 0 W/m 12,9 km/h (3 Bft) 100,00 %
10.03.2019 00:07 8,4 C 7,8 C 7,2 C 80 % 1012,5 hPa 0,0 l/m 0 min 0 min 0 W/m 9,7 km/h (2 Bft) 98,57 %
10.03.2019 00:08 8,4 C 7,8 C 7,2 C 80 % 1012,5 hPa 0,0 l/m 0 min 0 min 0 W/m 6,4 km/h (2 Bft) 100,00 %
10.03.2019 00:10 8,4 C 7,8 C 7,2 C 81 % 1012,4 hPa 0,0 l/m 0 min 0 min 0 W/m 12,9 km/h (3 Bft) 100,00 %
10.03.2019 00:12 8,4 C 7,8 C 7,2 C 81 % 1012,4 hPa 0,0 l/m 0 min 0 min 0 W/m 6,4 km/h (2 Bft) 100,00 %
10.03.2019 00:14 8,4 C 7,8 C 7,2 C 81 % 1012,3 hPa 0,0 l/m 0 min 0 min 0 W/m 12,9 km/h (3 Bft) 97,87 %
10.03.2019 00:16 8,4 C 7,8 C 7,2 C 82 % 1012,3 hPa 0,0 l/m 0 min 0 min 0 W/m 16,1 km/h (3 Bft) 100,00 %
10.03.2019 00:18 8,4 C 7,8 C 7,2 C 82 % 1012,2 hPa 0,0 l/m 0 min 0 min 0 W/m 9,7 km/h (2 Bft) 100,00 %
10.03.2019 00:20 8,4 C 7,8 C 7,2 C 82 % 1012,2 hPa 0,0 l/m 0 min 0 min 0 W/m 12,9 km/h (3 Bft) 100,00 %
10.03.2019 00:22 8,4 C 7,8 C 7,2 C 82 % 1012,2 hPa 0,0 l/m 0 min 0 min 0 W/m 9,7 km/h (2 Bft) 100,00 %
10.03.2019 00:24 8,4 C 7,8 C 7,2 C 82 % 1012,2 hPa 0,0 l/m 0 min 0 min 0 W/m 6,4 km/h (2 Bft) 100,00 %
10.03.2019 00:26 8,4 C 7,8 C 7,2 C 83 % 1012,0 hPa 0,0 l/m 0 min 0 min 0 W/m 9,7 km/h (2 Bft) 100,00 %
10.03.2019 00:28 8,4 C 7,8 C 7,2 C 83 % 1012,2 hPa 0,0 l/m 0 min 0 min 0 W/m 16,1 km/h (3 Bft) 100,00 %
10.03.2019 00:30 8,4 C 7,8 C 7,2 C 83 % 1012,2 hPa 0,0 l/m 0 min 0 min 0 W/m 9,7 km/h (2 Bft) 100,00 %
10.03.2019 00:32 8,4 C 7,8 C 7,2 C 83 % 1012,2 hPa 0,0 l/m 0 min 0 min 0 W/m 9,7 km/h (2 Bft) 100,00 %
10.03.2019 00:34 8,4 C 7,8 C 7,2 C 83 % 1012,4 hPa 0,0 l/m 0 min 0 min 0 W/m 19,3 km/h (3 Bft) 100,00 %
10.03.2019 00:36 8,4 C 7,8 C 7,2 C 83 % 1012,4 hPa 0,0 l/m 0 min 0 min 0 W/m 12,9 km/h (3 Bft) 97,83 %
10.03.2019 00:38 8,4 C 7,8 C 7,2 C 83 % 1012,3 hPa 0,0 l/m 0 min 0 min 0 W/m 9,7 km/h (2 Bft) 100,00 %
10.03.2019 00:40 8,4 C 7,8 C 7,2 C 83 % 1012,4 hPa 0,0 l/m 0 min 0 min 0 W/m 12,9 km/h (3 Bft) 100,00 %
10.03.2019 00:42 8,4 C 7,8 C 7,2 C 83 % 1012,3 hPa 0,0 l/m 0 min 0 min 0 W/m 9,7 km/h (2 Bft) 95,74 %
10.03.2019 00:44 8,3 C 7,8 C 7,2 C 83 % 1012,2 hPa 0,0 l/m 0 min 0 min 0 W/m 12,9 km/h (3 Bft) 100,00 %
10.03.2019 00:46 8,4 C 7,8 C 7,2 C 83 % 1012,2 hPa 0,0 l/m 0 min 0 min 0 W/m 6,4 km/h (2 Bft) 100,00 %
10.03.2019 00:48 8,3 C 7,8 C 7,2 C 83 % 1012,4 hPa 0,0 l/m 0 min 0 min 0 W/m 9,7 km/h (2 Bft) 91,49 %
10.03.2019 00:50 8,3 C 7,8 C 7,2 C 83 % 1012,4 hPa 0,0 l/m 0 min 0 min 0 W/m 12,9 km/h (3 Bft) 95,65 %
10.03.2019 00:52 8,4 C 7,8 C 7,2 C 83 % 1012,4 hPa 0,0 l/m 0 min 0 min 0 W/m 16,1 km/h (3 Bft) 100,00 %
10.03.2019 00:54 8,3 C 7,8 C 7,2 C 83 % 1012,3 hPa 0,0 l/m 0 min 0 min 0 W/m 6,4 km/h (2 Bft) 100,00 %
10.03.2019 00:56 8,4 C 7,8 C 7,2 C 83 % 1012,2 hPa 0,0 l/m 0 min 0 min 0 W/m 9,7 km/h (2 Bft) 97,87 %
10.03.2019 00:58 8,3 C 7,8 C 7,2 C 83 % 1012,2 hPa 0,0 l/m 0 min 0 min 0 W/m 9,7 km/h (2 Bft) 97,87 %
10.03.2019 01:00 8,3 C 7,8 C 7,2 C 83 % 1012,1 hPa 0,0 l/m 0 min 0 min 0 W/m 6,4 km/h (2 Bft) 97,83 %
10.03.2019 01:02 8,3 C 7,8 C 7,2 C 83 % 1012,1 hPa 0,0 l/m 0 min 0 min 0 W/m 9,7 km/h (2 Bft) 97,87 %
10.03.2019 01:04 8,3 C 7,8 C 7,2 C 83 % 1012,1 hPa 0,0 l/m 0 min 0 min 0 W/m 9,7 km/h (2 Bft) 97,87 %
10.03.2019 01:06 8,3 C 7,8 C 7,2 C 83 % 1012,0 hPa 0,0 l/m 0 min 0 min 0 W/m 6,4 km/h (2 Bft) 97,87 %
10.03.2019 01:08 8,3 C 7,8 C 7,2 C 84 % 1011,9 hPa 0,0 l/m 0 min 0 min 0 W/m 6,4 km/h (2 Bft) 97,92 %
10.03.2019 01:10 8,3 C 7,8 C 7,2 C 84 % 1011,8 hPa 0,0 l/m 0 min 0 min 0 W/m 6,4 km/h (2 Bft) 95,74 %
10.03.2019 01:12 8,3 C 7,8 C 6,7 C 84 % 1011,8 hPa 0,0 l/m 0 min 0 min 0 W/m 6,4 km/h (2 Bft) 93,48 %
10.03.2019 01:14 8,3 C 7,8 C 7,2 C 84 % 1011,7 hPa 0,0 l/m 0 min 0 min 0 W/m 9,7 km/h (2 Bft) 93,62 %
10.03.2019 01:16 8,3 C 7,8 C 7,2 C 84 % 1011,8 hPa 0,0 l/m 0 min 0 min 0 W/m 6,4 km/h (2 Bft) 95,74 %
10.03.2019 01:18 8,3 C 7,8 C 6,7 C 84 % 1011,7 hPa 0,0 l/m 0 min 0 min 0 W/m 12,9 km/h (3 Bft) 95,74 %
10.03.2019 01:20 8,3 C 7,8 C 6,7 C 84 % 1011,6 hPa 0,0 l/m 0 min 0 min 0 W/m 6,4 km/h (2 Bft) 95,74 %
10.03.2019 01:22 8,3 C 7,2 C 6,7 C 84 % 1011,6 hPa 0,0 l/m 0 min 0 min 0 W/m 9,7 km/h (2 Bft) 95,65 %
10.03.2019 01:24 8,3 C 7,8 C 6,7 C 84 % 1011,6 hPa 0,0 l/m 0 min 0 min 0 W/m 9,7 km/h (2 Bft) 95,74 %
10.03.2019 01:26 8,3 C 7,8 C 7,2 C 84 % 1011,7 hPa 0,0 l/m 0 min 0 min 0 W/m 16,1 km/h (3 Bft) 95,74 %
10.03.2019 01:28 8,3 C 7,8 C 7,2 C 85 % 1011,7 hPa 0,0 l/m 0 min 0 min 0 W/m 12,9 km/h (3 Bft) 93,62 %
10.03.2019 01:30 8,3 C 7,8 C 7,2 C 84 % 1011,6 hPa 0,0 l/m 0 min 0 min 0 W/m 16,1 km/h (3 Bft) 93,62 %
10.03.2019 01:32 8,3 C 7,8 C 7,2 C 85 % 1011,6 hPa 0,0 l/m 0 min 0 min 0 W/m 9,7 km/h (2 Bft) 95,74 %
10.03.2019 01:34 8,3 C 7,8 C 7,2 C 85 % 1011,6 hPa 0,0 l/m 0 min 0 min 0 W/m 12,9 km/h (3 Bft) 93,48 %
10.03.2019 01:36 8,2 C 7,8 C 7,2 C 85 % 1011,5 hPa 0,0 l/m 0 min 0 min 0 W/m 9,7 km/h (2 Bft) 95,74 %
10.03.2019 01:38 8,2 C 7,8 C 7,2 C 85 % 1011,6 hPa 0,0 l/m 0 min 0 min 0 W/m 9,7 km/h (2 Bft) 95,74 %
10.03.2019 01:40 8,2 C 7,8 C 6,7 C 85 % 1011,5 hPa 0,0 l/m 0 min 0 min 0 W/m 9,7 km/h (2 Bft) 95,74 %
10.03.2019 01:42 8,2 C 7,2 C 6,7 C 85 % 1011,5 hPa 0,0 l/m 0 min 0 min 0 W/m 6,4 km/h (2 Bft) 97,87 %
10.03.2019 01:44 8,2 C 7,2 C 6,7 C 85 % 1011,5 hPa 0,0 l/m 0 min 0 min 0 W/m 12,9 km/h (3 Bft) 93,62 %
10.03.2019 01:46 8,2 C 7,8 C 7,2 C 85 % 1011,5 hPa 0,0 l/m 0 min 0 min 0 W/m 6,4 km/h (2 Bft) 95,65 %
10.03.2019 01:48 8,2 C 7,8 C 6,7 C 85 % 1011,5 hPa 0,0 l/m 0 min 0 min 0 W/m 9,7 km/h (2 Bft) 93,62 %
10.03.2019 01:50 8,2 C 7,2 C 6,7 C 85 % 1011,5 hPa 0,0 l/m 0 min 0 min 0 W/m 6,4 km/h (2 Bft) 95,74 %
10.03.2019 01:52 8,2 C 7,2 C 6,7 C 85 % 1011,4 hPa 0,0 l/m 0 min 0 min 0 W/m 6,4 km/h (2 Bft) 93,62 %
10.03.2019 01:54 8,2 C 7,8 C 7,2 C 85 % 1011,5 hPa 0,0 l/m 0 min 0 min 0 W/m 12,9 km/h (3 Bft) 97,87 %
10.03.2019 01:56 8,2 C 7,8 C 7,2 C 86 % 1011,4 hPa 0,0 l/m 0 min 0 min 0 W/m 6,4 km/h (2 Bft) 95,74 %
10.03.2019 01:58 8,2 C 7,8 C 7,2 C 86 % 1011,4 hPa 0,0 l/m 0 min 0 min 0 W/m 12,9 km/h (3 Bft) 93,48 %
10.03.2019 02:00 8,2 C 7,8 C 7,2 C 86 % 1011,4 hPa 0,0 l/m 0 min 0 min 0 W/m 16,1 km/h (3 Bft) 97,87 %
10.03.2019 02:02 8,2 C 7,8 C 7,2 C 86 % 1011,4 hPa 0,0 l/m 0 min 0 min 0 W/m 9,7 km/h (2 Bft) 97,87 %
10.03.2019 02:04 8,2 C 7,8 C 7,2 C 86 % 1011,4 hPa 0,0 l/m 0 min 0 min 0 W/m 12,9 km/h (3 Bft) 97,87 %
10.03.2019 02:06 8,2 C 7,8 C 7,2 C 86 % 1011,3 hPa 0,0 l/m 0 min 0 min 0 W/m 16,1 km/h (3 Bft) 95,74 %
10.03.2019 02:08 8,2 C 7,8 C 7,2 C 86 % 1011,3 hPa 0,0 l/m 0 min 0 min 0 W/m 16,1 km/h (3 Bft) 95,65 %
10.03.2019 02:10 8,2 C 7,8 C 7,2 C 86 % 1011,3 hPa 0,0 l/m 0 min 0 min 0 W/m 9,7 km/h (2 Bft) 97,87 %
10.03.2019 02:12 8,2 C 7,8 C 7,2 C 86 % 1011,2 hPa 0,0 l/m 0 min 0 min 0 W/m 12,9 km/h (3 Bft) 97,87 %
10.03.2019 02:14 8,2 C 7,8 C 7,2 C 86 % 1011,1 hPa 0,0 l/m 0 min 0 min 0 W/m 12,9 km/h (3 Bft) 97,87 %
10.03.2019 02:16 8,2 C 7,8 C 7,2 C 86 % 1011,1 hPa 0,0 l/m 0 min 0 min 0 W/m 9,7 km/h (2 Bft) 97,87 %
10.03.2019 02:18 8,2 C 7,8 C 7,2 C 86 % 1011,1 hPa 0,0 l/m 0 min 0 min 0 W/m 12,9 km/h (3 Bft) 97,87 %
10.03.2019 02:20 8,2 C 7,8 C 7,2 C 86 % 1011,1 hPa 0,0 l/m 0 min 0 min 0 W/m 16,1 km/h (3 Bft) 97,87 %
10.03.2019 02:22 8,2 C 7,8 C 7,2 C 86 % 1011,0 hPa 0,0 l/m 0 min 0 min 0 W/m 16,1 km/h (3 Bft) 97,83 %
10.03.2019 02:24 8,2 C 7,8 C 7,2 C 86 % 1010,9 hPa 0,0 l/m 0 min 0 min 0 W/m 12,9 km/h (3 Bft) 95,74 %
10.03.2019 02:26 8,2 C 7,8 C 7,2 C 86 % 1010,9 hPa 0,0 l/m 0 min 0 min 0 W/m 9,7 km/h (2 Bft) 97,87 %
10.03.2019 02:28 8,2 C 7,8 C 7,2 C 86 % 1010,7 hPa 0,0 l/m 0 min 0 min 0 W/m 12,9 km/h (3 Bft) 97,87 %
10.03.2019 02:30 8,2 C 7,8 C 7,2 C 86 % 1010,6 hPa 0,0 l/m 0 min 0 min 0 W/m 9,7 km/h (2 Bft) 97,87 %
10.03.2019 02:32 8,2 C 7,8 C 7,2 C 86 % 1010,6 hPa 0,0 l/m 0 min 0 min 0 W/m 12,9 km/h (3 Bft) 95,74 %
10.03.2019 02:34 8,2 C 7,8 C 7,2 C 86 % 1010,6 hPa 0,0 l/m 0 min 0 min 0 W/m 9,7 km/h (2 Bft) 97,83 %
10.03.2019 02:36 8,2 C 7,8 C 7,2 C 86 % 1010,7 hPa 0,0 l/m 0 min 0 min 0 W/m 12,9 km/h (3 Bft) 97,87 %
10.03.2019 02:38 8,2 C 7,8 C 7,2 C 86 % 1010,6 hPa 0,0 l/m 0 min 0 min 0 W/m 9,7 km/h (2 Bft) 97,87 %
10.03.2019 02:40 8,2 C 7,8 C 7,2 C 86 % 1010,5 hPa 0,0 l/m 0 min 0 min 0 W/m 16,1 km/h (3 Bft) 97,87 %
10.03.2019 02:42 8,2 C 7,8 C 7,2 C 86 % 1010,6 hPa 0,0 l/m 0 min 0 min 0 W/m 12,9 km/h (3 Bft) 97,87 %
10.03.2019 02:44 8,2 C 7,8 C 7,2 C 86 % 1010,5 hPa 0,0 l/m 0 min 0 min 0 W/m 16,1 km/h (3 Bft) 97,83 %
10.03.2019 02:46 8,2 C 7,8 C 7,2 C 86 % 1010,4 hPa 0,0 l/m 0 min 0 min 0 W/m 16,1 km/h (3 Bft) 97,87 %
10.03.2019 02:48 8,2 C 7,8 C 7,2 C 85 % 1010,3 hPa 0,0 l/m 0 min 0 min 0 W/m 9,7 km/h (2 Bft) 97,87 %
10.03.2019 02:50 8,2 C 7,8 C 7,2 C 85 % 1010,3 hPa 0,0 l/m 0 min 0 min 0 W/m 9,7 km/h (2 Bft) 100,00 %
10.03.2019 02:52 8,2 C 7,8 C 7,2 C 85 % 1010,3 hPa 0,0 l/m 0 min 0 min 0 W/m 19,3 km/h (3 Bft) 100,00 %
10.03.2019 02:54 8,2 C 7,8 C 7,2 C 85 % 1010,3 hPa 0,0 l/m 0 min 0 min 0 W/m 12,9 km/h (3 Bft) 100,00 %
10.03.2019 02:56 8,2 C 7,8 C 7,2 C 85 % 1010,2 hPa 0,0 l/m 0 min 0 min 0 W/m 9,7 km/h (2 Bft) 97,83 %
10.03.2019 02:58 8,2 C 7,8 C 7,2 C 85 % 1010,0 hPa 0,0 l/m 0 min 0 min 0 W/m 9,7 km/h (2 Bft) 97,87 %
10.03.2019 03:00 8,2 C 7,8 C 6,7 C 85 % 1009,9 hPa 0,0 l/m 0 min 0 min 0 W/m 9,7 km/h (2 Bft) 100,00 %
10.03.2019 03:02 8,2 C 7,8 C 7,2 C 85 % 1009,8 hPa 0,0 l/m 0 min 0 min 0 W/m 16,1 km/h (3 Bft) 100,00 %
10.03.2019 03:04 8,2 C 7,2 C 6,7 C 85 % 1009,7 hPa 0,0 l/m 0 min 0 min 0 W/m 6,4 km/h (2 Bft) 100,00 %
10.03.2019 03:06 8,2 C 7,2 C 6,7 C 86 % 1009,5 hPa 0,0 l/m 0 min 2 min 0 W/m 9,7 km/h (2 Bft) 96,61 %
10.03.2019 03:08 8,2 C 7,2 C 6,7 C 86 % 1009,5 hPa 0,0 l/m 0 min 2 min 0 W/m 6,4 km/h (2 Bft) 100,00 %
10.03.2019 03:10 8,2 C 7,2 C 6,7 C 86 % 1009,4 hPa 0,0 l/m 0 min 0 min 0 W/m 9,7 km/h (2 Bft) 100,00 %
10.03.2019 03:12 8,2 C 7,2 C 6,7 C 86 % 1009,4 hPa 0,0 l/m 0 min 0 min 0 W/m 9,7 km/h (2 Bft) 100,00 %
10.03.2019 03:14 8,2 C 7,2 C 6,7 C 86 % 1009,3 hPa 0,0 l/m 0 min 0 min 0 W/m 9,7 km/h (2 Bft) 100,00 %
10.03.2019 03:16 8,1 C 7,2 C 6,7 C 86 % 1009,3 hPa 0,0 l/m 0 min 2 min 0 W/m 12,9 km/h (3 Bft) 100,00 %
10.03.2019 03:18 8,1 C 7,2 C 6,7 C 86 % 1009,2 hPa 0,0 l/m 0 min 2 min 0 W/m 9,7 km/h (2 Bft) 100,00 %
10.03.2019 03:20 8,1 C 7,2 C 6,7 C 86 % 1009,1 hPa 0,0 l/m 0 min 2 min 0 W/m 19,3 km/h (3 Bft) 100,00 %
10.03.2019 03:22 8,1 C 7,2 C 6,7 C 86 % 1009,1 hPa 0,0 l/m 0 min 2 min 0 W/m 12,9 km/h (3 Bft) 98,28 %
10.03.2019 03:24 8,1 C 7,2 C 6,7 C 86 % 1008,9 hPa 0,0 l/m 0 min 2 min 0 W/m 9,7 km/h (2 Bft) 100,00 %
10.03.2019 03:26 8,1 C 7,2 C 6,1 C 86 % 1008,9 hPa 0,0 l/m 0 min 2 min 0 W/m 16,1 km/h (3 Bft) 97,87 %
10.03.2019 03:28 8,1 C 6,7 C 6,1 C 86 % 1008,9 hPa 0,0 l/m 0 min 2 min 0 W/m 12,9 km/h (3 Bft) 100,00 %
10.03.2019 03:30 8,1 C 6,7 C 6,1 C 86 % 1008,9 hPa 0,0 l/m 0 min 2 min 0 W/m 16,1 km/h (3 Bft) 100,00 %
10.03.2019 03:32 8,1 C 6,7 C 6,1 C 86 % 1008,8 hPa 0,0 l/m 0 min 2 min 0 W/m 12,9 km/h (3 Bft) 100,00 %
10.03.2019 03:34 8,1 C 6,7 C 6,1 C 86 % 1008,8 hPa 0,0 l/m 0 min 2 min 0 W/m 9,7 km/h (2 Bft) 98,28 %
10.03.2019 03:36 8,1 C 6,7 C 6,1 C 87 % 1008,7 hPa 0,0 l/m 0 min 0 min 0 W/m 12,9 km/h (3 Bft) 100,00 %
10.03.2019 03:38 8,1 C 6,7 C 6,1 C 87 % 1008,7 hPa 0,0 l/m 0 min 0 min 0 W/m 9,7 km/h (2 Bft) 100,00 %
10.03.2019 03:40 8,0 C 6,7 C 6,1 C 87 % 1008,7 hPa 0,0 l/m 0 min 2 min 0 W/m 12,9 km/h (3 Bft) 100,00 %
10.03.2019 03:42 8,0 C 6,7 C 6,1 C 87 % 1008,7 hPa 0,0 l/m 0 min 2 min 0 W/m 12,9 km/h (3 Bft) 100,00 %
10.03.2019 03:44 8,0 C 6,7 C 6,1 C 87 % 1008,5 hPa 0,0 l/m 0 min 2 min 0 W/m 12,9 km/h (3 Bft) 95,74 %
10.03.2019 03:46 8,0 C 6,7 C 6,1 C 87 % 1008,5 hPa 0,0 l/m 0 min 2 min 0 W/m 9,7 km/h (2 Bft) 97,87 %
10.03.2019 03:48 7,9 C 6,7 C 6,1 C 87 % 1008,4 hPa 0,0 l/m 0 min 2 min 0 W/m 9,7 km/h (2 Bft) 97,83 %
10.03.2019 03:50 7,9 C 6,7 C 6,1 C 87 % 1008,4 hPa 0,0 l/m 0 min 2 min 0 W/m 9,7 km/h (2 Bft) 97,87 %
10.03.2019 03:52 7,9 C 6,7 C 6,1 C 87 % 1008,4 hPa 0,0 l/m 0 min 2 min 0 W/m 9,7 km/h (2 Bft) 93,62 %
10.03.2019 03:54 7,9 C 6,7 C 6,1 C 87 % 1008,2 hPa 0,0 l/m 0 min 2 min 0 W/m 12,9 km/h (3 Bft) 93,62 %
10.03.2019 03:56 7,9 C 6,7 C 6,1 C 87 % 1008,2 hPa 0,0 l/m 0 min 0 min 0 W/m 12,9 km/h (3 Bft) 95,74 %
10.03.2019 03:58 7,9 C 6,1 C 6,1 C 87 % 1008,1 hPa 0,0 l/m 0 min 2 min 0 W/m 9,7 km/h (2 Bft) 95,65 %
10.03.2019 04:00 7,9 C 6,1 C 6,1 C 88 % 1008,0 hPa 0,0 l/m 0 min 2 min 0 W/m 12,9 km/h (3 Bft) 95,74 %
10.03.2019 04:02 7,9 C 6,1 C 6,1 C 88 % 1008,0 hPa 0,2 l/m 0 min 2 min 0 W/m 9,7 km/h (2 Bft) 100,00 %
10.03.2019 04:04 7,9 C 6,1 C 6,1 C 88 % 1007,8 hPa 0,0 l/m 0 min 2 min 0 W/m 12,9 km/h (3 Bft) 100,00 %
10.03.2019 04:06 7,8 C 6,1 C 6,1 C 88 % 1007,9 hPa 0,0 l/m 0 min 0 min 0 W/m 9,7 km/h (2 Bft) 94,92 %
10.03.2019 04:08 7,8 C 6,1 C 6,1 C 88 % 1007,8 hPa 0,0 l/m 0 min 2 min 0 W/m 9,7 km/h (2 Bft) 97,14 %
10.03.2019 04:10 7,8 C 6,1 C 6,1 C 88 % 1007,8 hPa 0,0 l/m 0 min 2 min 0 W/m 12,9 km/h (3 Bft) 93,48 %
10.03.2019 04:12 7,8 C 6,1 C 5,6 C 88 % 1007,8 hPa 0,0 l/m 0 min 2 min 0 W/m 6,4 km/h (2 Bft) 93,62 %
10.03.2019 04:14 7,8 C 6,1 C 5,6 C 88 % 1007,8 hPa 0,0 l/m 0 min 2 min 0 W/m 9,7 km/h (2 Bft) 93,62 %
10.03.2019 04:16 7,8 C 6,1 C 5,6 C 89 % 1007,7 hPa 0,0 l/m 0 min 2 min 0 W/m 9,7 km/h (2 Bft) 95,74 %
10.03.2019 04:18 7,8 C 6,1 C 5,6 C 89 % 1007,6 hPa 0,0 l/m 0 min 2 min 0 W/m 9,7 km/h (2 Bft) 95,74 %
10.03.2019 04:20 7,8 C 6,1 C 5,6 C 89 % 1007,6 hPa 0,0 l/m 0 min 2 min 0 W/m 9,7 km/h (2 Bft) 95,74 %
10.03.2019 04:22 7,8 C 6,1 C 5,6 C 89 % 1007,5 hPa 0,0 l/m 0 min 2 min 0 W/m 6,4 km/h (2 Bft) 95,65 %
10.03.2019 04:24 7,8 C 6,1 C 5,6 C 89 % 1007,5 hPa 0,0 l/m 0 min 2 min 0 W/m 9,7 km/h (2 Bft) 93,62 %
10.03.2019 04:26 7,7 C 6,1 C 5,6 C 89 % 1007,5 hPa 0,2 l/m 0 min 2 min 0 W/m 6,4 km/h (2 Bft) 95,74 %
10.03.2019 04:28 7,7 C 6,1 C 5,6 C 89 % 1007,4 hPa 0,0 l/m 0 min 2 min 0 W/m 3,2 km/h (1 Bft) 93,62 %
10.03.2019 04:30 7,7 C 6,1 C 5,6 C 90 % 1007,3 hPa 0,2 l/m 0 min 2 min 0 W/m 6,4 km/h (2 Bft) 97,87 %
10.03.2019 04:32 7,7 C 6,1 C 5,6 C 90 % 1007,3 hPa 0,0 l/m 0 min 2 min 0 W/m 3,2 km/h (1 Bft) 97,87 %
10.03.2019 04:34 7,7 C 6,1 C 5,6 C 90 % 1007,2 hPa 0,0 l/m 0 min 2 min 0 W/m 6,4 km/h (2 Bft) 97,83 %
10.03.2019 04:36 7,7 C 6,1 C 5,6 C 90 % 1007,1 hPa 0,0 l/m 0 min 2 min 0 W/m 3,2 km/h (1 Bft) 98,31 %
10.03.2019 04:38 7,7 C 6,1 C 5,6 C 90 % 1007,1 hPa 0,2 l/m 0 min 2 min 0 W/m 0,0 km/h (0 Bft) 100,00 %
10.03.2019 04:40 7,7 C 6,1 C 5,6 C 90 % 1007,1 hPa 0,0 l/m 0 min 2 min 0 W/m 6,4 km/h (2 Bft) 95,74 %
10.03.2019 04:42 7,7 C 6,1 C 5,6 C 90 % 1007,0 hPa 0,0 l/m 0 min 2 min 0 W/m 3,2 km/h (1 Bft) 100,00 %
10.03.2019 04:44 7,7 C 6,1 C 5,6 C 90 % 1006,9 hPa 0,2 l/m 0 min 2 min 0 W/m 3,2 km/h (1 Bft) 100,00 %
10.03.2019 04:46 7,6 C 5,6 C 5,6 C 91 % 1006,9 hPa 0,0 l/m 0 min 2 min 0 W/m 12,9 km/h (3 Bft) 100,00 %
10.03.2019 04:48 7,6 C 5,6 C 5,6 C 91 % 1006,7 hPa 0,0 l/m 0 min 2 min 0 W/m 12,9 km/h (3 Bft) 97,87 %
10.03.2019 04:50 7,6 C 5,6 C 5,0 C 91 % 1006,7 hPa 0,0 l/m 0 min 2 min 0 W/m 9,7 km/h (2 Bft) 100,00 %
10.03.2019 04:52 7,5 C 5,6 C 5,0 C 91 % 1006,6 hPa 0,0 l/m 0 min 2 min 0 W/m 9,7 km/h (2 Bft) 100,00 %
10.03.2019 04:54 7,5 C 5,6 C 5,0 C 91 % 1006,5 hPa 0,0 l/m 0 min 2 min 0 W/m 12,9 km/h (3 Bft) 100,00 %
10.03.2019 04:56 7,4 C 5,6 C 5,0 C 91 % 1006,5 hPa 0,0 l/m 0 min 2 min 0 W/m 9,7 km/h (2 Bft) 100,00 %
10.03.2019 04:58 7,4 C 5,6 C 5,0 C 91 % 1006,4 hPa 0,0 l/m 0 min 2 min 0 W/m 16,1 km/h (3 Bft) 100,00 %
10.03.2019 05:00 7,3 C 5,6 C 5,0 C 91 % 1006,3 hPa 0,2 l/m 0 min 2 min 0 W/m 9,7 km/h (2 Bft) 100,00 %
10.03.2019 05:02 7,3 C 5,6 C 5,0 C 91 % 1006,3 hPa 0,0 l/m 0 min 2 min 0 W/m 16,1 km/h (3 Bft) 100,00 %
10.03.2019 05:04 7,3 C 5,6 C 5,0 C 91 % 1006,3 hPa 0,0 l/m 0 min 2 min 0 W/m 6,4 km/h (2 Bft) 97,87 %
10.03.2019 05:05 7,3 C 5,6 C 5,0 C 91 % 1006,2 hPa 0,0 l/m 0 min 1 min 0 W/m 19,3 km/h (3 Bft) 100,00 %
10.03.2019 05:10 7,2 C 5,6 C 5,0 C 92 % 1006,1 hPa 0,2 l/m 0 min 5 min 0 W/m 16,1 km/h (3 Bft) 100,00 %
10.03.2019 05:12 7,2 C 5,6 C 5,0 C 92 % 1005,9 hPa 0,0 l/m 0 min 2 min 0 W/m 9,7 km/h (2 Bft) 91,18 %
10.03.2019 05:14 7,2 C 5,6 C 5,0 C 92 % 1005,9 hPa 0,0 l/m 0 min 2 min 0 W/m 6,4 km/h (2 Bft) 95,74 %
10.03.2019 05:19 7,1 C 5,6 C 5,0 C 92 % 1005,8 hPa 0,0 l/m 0 min 5 min 0 W/m 9,7 km/h (2 Bft) 93,59 %
10.03.2019 05:20 7,1 C 5,6 C 5,0 C 92 % 1005,8 hPa 0,0 l/m 0 min 1 min 0 W/m 3,2 km/h (1 Bft) 90,91 %
10.03.2019 05:22 7,1 C 5,6 C 5,0 C 92 % 1005,7 hPa 0,0 l/m 0 min 2 min 0 W/m 12,9 km/h (3 Bft) 100,00 %
10.03.2019 05:24 7,1 C 5,6 C 5,0 C 92 % 1005,7 hPa 0,0 l/m 0 min 2 min 0 W/m 6,4 km/h (2 Bft) 95,92 %
10.03.2019 05:26 7,0 C 5,6 C 5,0 C 92 % 1005,6 hPa 0,0 l/m 0 min 2 min 0 W/m 6,4 km/h (2 Bft) 100,00 %
10.03.2019 05:28 7,0 C 5,6 C 5,0 C 92 % 1005,6 hPa 0,0 l/m 0 min 2 min 0 W/m 9,7 km/h (2 Bft) 97,62 %
10.03.2019 05:30 7,0 C 5,6 C 5,0 C 93 % 1005,5 hPa 0,0 l/m 0 min 2 min 0 W/m 9,7 km/h (2 Bft) 97,96 %
10.03.2019 05:32 6,9 C 5,6 C 5,0 C 93 % 1005,4 hPa 0,0 l/m 0 min 2 min 0 W/m 12,9 km/h (3 Bft) 97,96 %
10.03.2019 05:34 6,9 C 5,6 C 5,0 C 93 % 1005,4 hPa 0,2 l/m 0 min 2 min 0 W/m 6,4 km/h (2 Bft) 95,74 %
10.03.2019 05:36 6,9 C 5,6 C 5,0 C 93 % 1005,2 hPa 0,0 l/m 0 min 2 min 0 W/m 6,4 km/h (2 Bft) 98,15 %
10.03.2019 05:38 6,9 C 5,6 C 5,0 C 93 % 1005,3 hPa 0,0 l/m 0 min 2 min 0 W/m 6,4 km/h (2 Bft) 97,30 %
10.03.2019 05:40 6,9 C 5,6 C 5,0 C 93 % 1005,3 hPa 0,0 l/m 0 min 2 min 0 W/m 12,9 km/h (3 Bft) 97,96 %
10.03.2019 05:42 6,9 C 5,6 C 5,0 C 93 % 1005,1 hPa 0,2 l/m 0 min 2 min 0 W/m 6,4 km/h (2 Bft) 97,87 %
10.03.2019 05:44 6,8 C 5,6 C 5,0 C 93 % 1005,1 hPa 0,0 l/m 0 min 2 min 0 W/m 6,4 km/h (2 Bft) 97,87 %
10.03.2019 05:46 6,8 C 5,6 C 5,0 C 93 % 1005,0 hPa 0,0 l/m 0 min 2 min 0 W/m 6,4 km/h (2 Bft) 97,87 %
10.03.2019 05:48 6,8 C 5,6 C 5,0 C 93 % 1005,0 hPa 0,0 l/m 0 min 2 min 0 W/m 12,9 km/h (3 Bft) 97,62 %
10.03.2019 05:50 6,8 C 5,6 C 5,0 C 93 % 1005,0 hPa 0,0 l/m 0 min 2 min 0 W/m 6,4 km/h (2 Bft) 97,96 %
10.03.2019 05:52 6,8 C 5,6 C 5,0 C 93 % 1004,9 hPa 0,0 l/m 0 min 2 min 0 W/m 9,7 km/h (2 Bft) 97,96 %
10.03.2019 05:54 6,8 C 5,6 C 5,0 C 93 % 1004,8 hPa 0,0 l/m 0 min 2 min 0 W/m 9,7 km/h (2 Bft) 95,74 %
10.03.2019 05:56 6,7 C 5,6 C 5,0 C 93 % 1004,7 hPa 0,0 l/m 0 min 2 min 0 W/m 9,7 km/h (2 Bft) 97,87 %
10.03.2019 05:58 6,7 C 5,6 C 5,0 C 93 % 1004,7 hPa 0,0 l/m 0 min 2 min 0 W/m 9,7 km/h (2 Bft) 97,87 %
10.03.2019 06:00 6,7 C 5,6 C 5,0 C 93 % 1004,7 hPa 0,2 l/m 0 min 2 min 0 W/m 6,4 km/h (2 Bft) 93,62 %
10.03.2019 06:02 6,7 C 5,6 C 5,0 C 93 % 1004,6 hPa 0,0 l/m 0 min 2 min 0 W/m 6,4 km/h (2 Bft) 95,45 %
10.03.2019 06:04 6,7 C 5,6 C 5,0 C 94 % 1004,7 hPa 0,0 l/m 0 min 2 min 0 W/m 9,7 km/h (2 Bft) 91,49 %
10.03.2019 06:07 6,6 C 5,6 C 5,0 C 94 % 1004,6 hPa 0,2 l/m 0 min 3 min 0 W/m 6,4 km/h (2 Bft) 97,26 %
10.03.2019 06:08 6,6 C 5,6 C 5,0 C 94 % 1004,6 hPa 0,0 l/m 0 min 1 min 0 W/m 3,2 km/h (1 Bft) 95,65 %
10.03.2019 06:10 6,6 C 5,0 C 5,0 C 94 % 1004,5 hPa 0,0 l/m 0 min 2 min 0 W/m 9,7 km/h (2 Bft) 95,92 %
10.03.2019 06:12 6,6 C 5,0 C 5,0 C 94 % 1004,5 hPa 0,0 l/m 0 min 2 min 0 W/m 9,7 km/h (2 Bft) 95,83 %
10.03.2019 06:14 6,6 C 5,0 C 5,0 C 94 % 1004,4 hPa 0,0 l/m 0 min 2 min 0 W/m 9,7 km/h (2 Bft) 95,74 %
10.03.2019 06:16 6,6 C 5,0 C 5,0 C 94 % 1004,3 hPa 0,2 l/m 0 min 2 min 0 W/m 3,2 km/h (1 Bft) 97,83 %
10.03.2019 06:18 6,5 C 5,0 C 5,0 C 94 % 1004,1 hPa 0,0 l/m 0 min 2 min 0 W/m 3,2 km/h (1 Bft) 95,35 %
10.03.2019 06:20 6,5 C 5,0 C 5,0 C 94 % 1004,1 hPa 0,2 l/m 0 min 2 min 0 W/m 6,4 km/h (2 Bft) 93,75 %
10.03.2019 06:22 6,5 C 5,0 C 5,0 C 94 % 1004,0 hPa 0,0 l/m 0 min 2 min 0 W/m 6,4 km/h (2 Bft) 96,00 %
10.03.2019 06:24 6,4 C 5,0 C 4,4 C 94 % 1004,0 hPa 0,0 l/m 0 min 2 min 0 W/m 6,4 km/h (2 Bft) 95,74 %
10.03.2019 06:26 6,4 C 5,0 C 4,4 C 94 % 1003,9 hPa 0,2 l/m 0 min 2 min 0 W/m 9,7 km/h (2 Bft) 95,24 %
10.03.2019 06:28 6,4 C 5,0 C 4,4 C 94 % 1003,8 hPa 0,2 l/m 0 min 2 min 0 W/m 16,1 km/h (3 Bft) 97,96 %
10.03.2019 06:30 6,4 C 5,0 C 4,4 C 94 % 1003,7 hPa 0,0 l/m 0 min 2 min 0 W/m 22,5 km/h (4 Bft) 95,83 %
10.03.2019 06:32 6,4 C 5,0 C 4,4 C 94 % 1003,5 hPa 0,0 l/m 0 min 2 min 0 W/m 6,4 km/h (2 Bft) 97,92 %
10.03.2019 06:34 6,4 C 5,0 C 4,4 C 94 % 1003,4 hPa 0,2 l/m 0 min 2 min 0 W/m 6,4 km/h (2 Bft) 97,87 %
10.03.2019 06:36 6,4 C 5,0 C 4,4 C 94 % 1003,4 hPa 0,2 l/m 0 min 2 min 0 W/m 9,7 km/h (2 Bft) 97,87 %
10.03.2019 06:38 6,3 C 5,0 C 4,4 C 94 % 1003,4 hPa 0,0 l/m 0 min 2 min 0 W/m 9,7 km/h (2 Bft) 97,67 %
10.03.2019 06:40 6,3 C 5,0 C 4,4 C 95 % 1003,3 hPa 0,0 l/m 0 min 2 min 0 W/m 3,2 km/h (1 Bft) 93,75 %
10.03.2019 06:42 6,3 C 5,0 C 4,4 C 94 % 1003,3 hPa 0,2 l/m 0 min 2 min 0 W/m 3,2 km/h (1 Bft) 93,88 %
10.03.2019 06:44 6,3 C 5,0 C 4,4 C 94 % 1003,3 hPa 0,2 l/m 0 min 2 min 0 W/m 0,0 km/h (0 Bft) 93,62 %
10.03.2019 06:46 6,3 C 5,0 C 4,4 C 94 % 1003,2 hPa 0,0 l/m 0 min 2 min 0 W/m 0,0 km/h (0 Bft) 95,24 %
10.03.2019 06:48 6,2 C 5,0 C 4,4 C 95 % 1003,0 hPa 0,0 l/m 0 min 2 min 0 W/m 0,0 km/h (0 Bft) 95,92 %
10.03.2019 06:50 6,2 C 5,0 C 4,4 C 95 % 1002,7 hPa 0,2 l/m 0 min 2 min 0 W/m 0,0 km/h (0 Bft) 91,84 %
10.03.2019 06:52 6,2 C 5,0 C 4,4 C 95 % 1002,7 hPa 0,0 l/m 0 min 2 min 0 W/m 0,0 km/h (0 Bft) 93,62 %
10.03.2019 06:54 6,2 C 5,0 C 4,4 C 95 % 1002,5 hPa 0,0 l/m 0 min 2 min 0 W/m 0,0 km/h (0 Bft) 95,74 %
10.03.2019 06:56 6,2 C 5,0 C 4,4 C 95 % 1002,5 hPa 0,2 l/m 0 min 2 min 0 W/m 0,0 km/h (0 Bft) 95,74 %
10.03.2019 06:58 6,2 C 5,0 C 4,4 C 95 % 1002,5 hPa 0,0 l/m 0 min 2 min 0 W/m 0,0 km/h (0 Bft) 95,35 %
10.03.2019 07:00 6,2 C 5,0 C 4,4 C 95 % 1002,5 hPa 0,0 l/m 0 min 2 min 0 W/m 0,0 km/h (0 Bft) 95,74 %
10.03.2019 07:02 6,1 C 5,0 C 4,4 C 95 % 1002,5 hPa 0,0 l/m 0 min 2 min 0 W/m 0,0 km/h (0 Bft) 94,12 %
10.03.2019 07:04 6,1 C 5,0 C 4,4 C 95 % 1002,4 hPa 0,0 l/m 0 min 2 min 0 W/m 0,0 km/h (0 Bft) 97,83 %
10.03.2019 07:06 6,1 C 5,0 C 4,4 C 95 % 1002,3 hPa 0,2 l/m 0 min 2 min 0 W/m 0,0 km/h (0 Bft) 95,24 %
10.03.2019 07:08 6,1 C 5,0 C 4,4 C 95 % 1002,4 hPa 0,0 l/m 0 min 2 min 0 W/m 0,0 km/h (0 Bft) 97,96 %
10.03.2019 07:10 6,1 C 5,0 C 4,4 C 95 % 1002,4 hPa 0,2 l/m 0 min 2 min 0 W/m 9,7 km/h (2 Bft) 97,96 %
10.03.2019 07:12 6,1 C 5,0 C 4,4 C 95 % 1002,4 hPa 0,0 l/m 0 min 2 min 0 W/m 12,9 km/h (3 Bft) 97,92 %
10.03.2019 07:14 6,0 C 5,0 C 4,4 C 95 % 1002,3 hPa 0,0 l/m 0 min 2 min 0 W/m 12,9 km/h (3 Bft) 97,83 %
10.03.2019 07:16 6,0 C 5,0 C 4,4 C 95 % 1002,3 hPa 0,0 l/m 0 min 2 min 0 W/m 9,7 km/h (2 Bft) 95,74 %
10.03.2019 07:18 6,0 C 5,0 C 4,4 C 95 % 1002,2 hPa 0,0 l/m 0 min 2 min 0 W/m 9,7 km/h (2 Bft) 97,62 %
10.03.2019 07:20 6,0 C 5,0 C 4,4 C 95 % 1002,1 hPa 0,0 l/m 0 min 2 min 0 W/m 16,1 km/h (3 Bft) 93,88 %
10.03.2019 07:22 6,0 C 5,0 C 4,4 C 95 % 1002,0 hPa 0,2 l/m 0 min 2 min 0 W/m 16,1 km/h (3 Bft) 100,00 %
10.03.2019 07:24 5,9 C 5,0 C 4,4 C 95 % 1002,0 hPa 0,0 l/m 0 min 2 min 0 W/m 6,4 km/h (2 Bft) 100,00 %
10.03.2019 07:26 5,9 C 5,0 C 4,4 C 95 % 1002,0 hPa 0,0 l/m 0 min 0 min 0 W/m 3,2 km/h (1 Bft) 100,00 %
10.03.2019 07:28 5,9 C 5,0 C 4,4 C 95 % 1001,8 hPa 0,0 l/m 0 min 0 min 5 W/m 12,9 km/h (3 Bft) 95,83 %
10.03.2019 07:30 5,9 C 5,0 C 4,4 C 96 % 1001,8 hPa 0,0 l/m 0 min 0 min 5 W/m 12,9 km/h (3 Bft) 97,96 %
10.03.2019 07:32 5,9 C 5,0 C 4,4 C 96 % 1001,5 hPa 0,2 l/m 0 min 2 min 7 W/m 22,5 km/h (4 Bft) 97,92 %
10.03.2019 07:34 5,8 C 5,0 C 4,4 C 96 % 1001,7 hPa 0,0 l/m 0 min 2 min 5 W/m 12,9 km/h (3 Bft) 97,87 %
10.03.2019 07:36 5,8 C 5,0 C 4,4 C 95 % 1001,7 hPa 0,0 l/m 0 min 2 min 5 W/m 12,9 km/h (3 Bft) 97,87 %
10.03.2019 07:38 5,8 C 5,0 C 4,4 C 95 % 1001,5 hPa 0,0 l/m 0 min 0 min 2 W/m 16,1 km/h (3 Bft) 97,67 %
10.03.2019 07:40 5,8 C 5,0 C 4,4 C 95 % 1001,4 hPa 0,0 l/m 0 min 0 min 1 W/m 9,7 km/h (2 Bft) 100,00 %
10.03.2019 07:42 5,8 C 5,0 C 4,4 C 96 % 1001,3 hPa 0,0 l/m 0 min 2 min 7 W/m 9,7 km/h (2 Bft) 98,00 %
10.03.2019 07:44 5,7 C 5,0 C 4,4 C 96 % 1001,3 hPa 0,0 l/m 0 min 2 min 14 W/m 6,4 km/h (2 Bft) 100,00 %
10.03.2019 07:46 5,7 C 5,0 C 4,4 C 96 % 1001,2 hPa 0,0 l/m 0 min 2 min 16 W/m 12,9 km/h (3 Bft) 100,00 %
10.03.2019 07:48 5,7 C 5,0 C 4,4 C 96 % 1001,1 hPa 0,0 l/m 0 min 2 min 13 W/m 9,7 km/h (2 Bft) 100,00 %
10.03.2019 07:50 5,7 C 5,0 C 4,4 C 96 % 1001,1 hPa 0,0 l/m 0 min 2 min 6 W/m 3,2 km/h (1 Bft) 100,00 %
10.03.2019 07:52 5,7 C 5,0 C 4,4 C 96 % 1001,0 hPa 0,2 l/m 0 min 2 min 0 W/m 12,9 km/h (3 Bft) 100,00 %
10.03.2019 07:54 5,7 C 5,0 C 4,4 C 96 % 1000,9 hPa 0,0 l/m 0 min 2 min 2 W/m 16,1 km/h (3 Bft) 100,00 %
10.03.2019 07:56 5,7 C 5,0 C 4,4 C 96 % 1001,0 hPa 0,0 l/m 0 min 2 min 6 W/m 9,7 km/h (2 Bft) 100,00 %
10.03.2019 07:58 5,7 C 5,0 C 4,4 C 96 % 1001,0 hPa 0,0 l/m 0 min 2 min 9 W/m 6,4 km/h (2 Bft) 97,87 %
10.03.2019 08:00 5,7 C 5,0 C 4,4 C 96 % 1000,9 hPa 0,2 l/m 0 min 2 min 12 W/m 6,4 km/h (2 Bft) 100,00 %
10.03.2019 08:02 5,7 C 5,0 C 4,4 C 96 % 1000,8 hPa 0,0 l/m 0 min 2 min 17 W/m 3,2 km/h (1 Bft) 100,00 %
10.03.2019 08:04 5,7 C 5,0 C 4,4 C 96 % 1000,7 hPa 0,0 l/m 0 min 2 min 15 W/m 6,4 km/h (2 Bft) 100,00 %
10.03.2019 08:06 5,7 C 5,0 C 4,4 C 96 % 1000,7 hPa 0,0 l/m 0 min 2 min 14 W/m 6,4 km/h (2 Bft) 100,00 %
10.03.2019 08:08 5,7 C 5,0 C 4,4 C 96 % 1000,6 hPa 0,0 l/m 0 min 2 min 17 W/m 3,2 km/h (1 Bft) 100,00 %
10.03.2019 08:10 5,7 C 5,0 C 4,4 C 96 % 1000,6 hPa 0,0 l/m 0 min 0 min 12 W/m 0,0 km/h (0 Bft) 97,87 %
10.03.2019 08:12 5,7 C 5,0 C 4,4 C 96 % 1000,6 hPa 0,0 l/m 0 min 0 min 11 W/m 0,0 km/h (0 Bft) 100,00 %
10.03.2019 08:14 5,7 C 5,0 C 4,4 C 96 % 1000,4 hPa 0,0 l/m 0 min 0 min 22 W/m 0,0 km/h (0 Bft) 100,00 %
10.03.2019 08:16 5,8 C 5,0 C 4,4 C 96 % 1000,5 hPa 0,0 l/m 0 min 2 min 19 W/m 0,0 km/h (0 Bft) 100,00 %
10.03.2019 08:18 5,7 C 5,0 C 4,4 C 96 % 1000,5 hPa 0,0 l/m 0 min 2 min 15 W/m 3,2 km/h (1 Bft) 100,00 %
10.03.2019 08:20 5,8 C 5,0 C 4,4 C 96 % 1000,4 hPa 0,2 l/m 0 min 2 min 10 W/m 3,2 km/h (1 Bft) 95,74 %
10.03.2019 08:22 5,8 C 5,0 C 4,4 C 96 % 1000,3 hPa 0,2 l/m 0 min 2 min 12 W/m 6,4 km/h (2 Bft) 93,62 %
10.03.2019 08:24 5,8 C 5,0 C 4,4 C 96 % 1000,2 hPa 0,0 l/m 0 min 2 min 25 W/m 6,4 km/h (2 Bft) 100,00 %
10.03.2019 08:26 5,8 C 5,0 C 4,4 C 97 % 1000,1 hPa 0,0 l/m 0 min 2 min 28 W/m 6,4 km/h (2 Bft) 97,83 %
10.03.2019 08:28 5,8 C 5,0 C 4,4 C 97 % 1000,1 hPa 0,2 l/m 0 min 2 min 23 W/m 9,7 km/h (2 Bft) 100,00 %
10.03.2019 08:30 5,8 C 5,0 C 4,4 C 97 % 1000,0 hPa 0,0 l/m 0 min 0 min 21 W/m 9,7 km/h (2 Bft) 95,74 %
10.03.2019 08:32 5,8 C 5,0 C 4,4 C 97 % 999,9 hPa 0,0 l/m 0 min 0 min 27 W/m 12,9 km/h (3 Bft) 100,00 %
10.03.2019 08:34 5,8 C 5,0 C 4,4 C 97 % 999,8 hPa 0,0 l/m 0 min 2 min 27 W/m 9,7 km/h (2 Bft) 97,87 %
10.03.2019 08:36 5,8 C 5,0 C 4,4 C 97 % 999,7 hPa 0,2 l/m 0 min 2 min 25 W/m 12,9 km/h (3 Bft) 100,00 %
10.03.2019 08:38 5,8 C 5,0 C 4,4 C 97 % 999,8 hPa 0,0 l/m 0 min 2 min 25 W/m 9,7 km/h (2 Bft) 97,87 %
10.03.2019 08:40 5,8 C 5,0 C 4,4 C 97 % 999,9 hPa 0,0 l/m 0 min 2 min 23 W/m 12,9 km/h (3 Bft) 97,87 %
10.03.2019 08:42 5,8 C 5,0 C 4,4 C 97 % 999,6 hPa 0,0 l/m 0 min 2 min 42 W/m 19,3 km/h (3 Bft) 100,00 %
10.03.2019 08:44 5,8 C 5,0 C 4,4 C 97 % 999,5 hPa 0,2 l/m 0 min 2 min 49 W/m 16,1 km/h (3 Bft) 100,00 %
10.03.2019 08:46 5,8 C 5,0 C 4,4 C 97 % 999,4 hPa 0,0 l/m 0 min 2 min 51 W/m 12,9 km/h (3 Bft) 97,87 %
10.03.2019 08:48 5,8 C 5,0 C 4,4 C 97 % 999,4 hPa 0,0 l/m 0 min 2 min 36 W/m 32,2 km/h (5 Bft) 95,65 %
10.03.2019 08:50 5,8 C 5,0 C 4,4 C 97 % 999,6 hPa 0,2 l/m 0 min 2 min 28 W/m 19,3 km/h (3 Bft) 97,87 %
10.03.2019 08:52 5,8 C 5,0 C 4,4 C 97 % 999,6 hPa 0,0 l/m 0 min 2 min 40 W/m 9,7 km/h (2 Bft) 100,00 %
10.03.2019 08:54 5,8 C 5,0 C 4,4 C 97 % 999,7 hPa 0,0 l/m 0 min 2 min 34 W/m 9,7 km/h (2 Bft) 91,49 %
10.03.2019 08:56 5,8 C 5,0 C 4,4 C 97 % 999,8 hPa 0,0 l/m 0 min 2 min 30 W/m 6,4 km/h (2 Bft) 95,74 %
10.03.2019 08:58 5,8 C 5,0 C 4,4 C 97 % 999,6 hPa 0,0 l/m 0 min 2 min 34 W/m 16,1 km/h (3 Bft) 93,62 %
10.03.2019 09:00 5,8 C 5,0 C 5,0 C 97 % 999,3 hPa 0,0 l/m 0 min 2 min 41 W/m 6,4 km/h (2 Bft) 93,48 %
10.03.2019 09:02 5,8 C 5,0 C 5,0 C 97 % 999,5 hPa 0,2 l/m 0 min 2 min 32 W/m 3,2 km/h (1 Bft) 95,74 %
10.03.2019 09:04 5,8 C 5,0 C 4,4 C 97 % 999,7 hPa 0,0 l/m 0 min 2 min 20 W/m 3,2 km/h (1 Bft) 93,62 %
10.03.2019 09:06 5,8 C 5,0 C 5,0 C 97 % 999,8 hPa 0,0 l/m 0 min 2 min 27 W/m 3,2 km/h (1 Bft) 95,74 %
10.03.2019 09:08 5,8 C 5,0 C 5,0 C 97 % 999,7 hPa 0,0 l/m 0 min 2 min 25 W/m 0,0 km/h (0 Bft) 95,74 %
10.03.2019 09:10 5,8 C 5,0 C 5,0 C 97 % 999,7 hPa 0,0 l/m 0 min 2 min 28 W/m 3,2 km/h (1 Bft) 95,74 %
10.03.2019 09:12 5,8 C 5,6 C 5,0 C 97 % 999,3 hPa 0,2 l/m 0 min 0 min 55 W/m 0,0 km/h (0 Bft) 95,65 %
10.03.2019 09:14 5,8 C 5,6 C 5,0 C 97 % 999,3 hPa 0,0 l/m 0 min 2 min 83 W/m 6,4 km/h (2 Bft) 93,75 %
10.03.2019 09:16 5,9 C 5,6 C 5,0 C 97 % 999,3 hPa 0,0 l/m 0 min 2 min 95 W/m 22,5 km/h (4 Bft) 93,62 %
10.03.2019 09:18 5,9 C 5,6 C 5,0 C 97 % 999,2 hPa 0,0 l/m 0 min 0 min 81 W/m 12,9 km/h (3 Bft) 95,74 %
10.03.2019 09:20 5,9 C 5,6 C 5,0 C 97 % 999,2 hPa 0,0 l/m 0 min 0 min 46 W/m 16,1 km/h (3 Bft) 91,49 %
10.03.2019 09:22 6,0 C 5,6 C 5,0 C 97 % 999,3 hPa 0,0 l/m 0 min 0 min 32 W/m 6,4 km/h (2 Bft) 93,62 %
10.03.2019 09:24 5,9 C 5,6 C 5,0 C 97 % 999,4 hPa 0,0 l/m 0 min 2 min 35 W/m 6,4 km/h (2 Bft) 91,30 %
10.03.2019 09:26 6,0 C 5,6 C 5,0 C 97 % 999,3 hPa 0,0 l/m 0 min 2 min 36 W/m 0,0 km/h (0 Bft) 91,49 %
10.03.2019 09:28 6,0 C 5,6 C 5,0 C 97 % 999,3 hPa 0,2 l/m 0 min 2 min 34 W/m 9,7 km/h (2 Bft) 93,62 %
10.03.2019 09:30 6,0 C 5,6 C 5,0 C 97 % 999,3 hPa 0,2 l/m 0 min 2 min 40 W/m 3,2 km/h (1 Bft) 93,62 %
10.03.2019 09:32 6,0 C 5,6 C 5,0 C 97 % 999,2 hPa 0,0 l/m 0 min 2 min 41 W/m 3,2 km/h (1 Bft) 93,62 %
10.03.2019 09:34 6,0 C 5,6 C 5,0 C 97 % 999,2 hPa 0,0 l/m 0 min 2 min 52 W/m 0,0 km/h (0 Bft) 91,49 %
10.03.2019 09:36 6,0 C 5,6 C 5,0 C 97 % 999,2 hPa 0,0 l/m 0 min 2 min 60 W/m 0,0 km/h (0 Bft) 93,48 %
10.03.2019 09:38 6,1 C 5,6 C 5,0 C 97 % 999,1 hPa 0,0 l/m 0 min 0 min 73 W/m 3,2 km/h (1 Bft) 93,62 %
10.03.2019 09:40 6,1 C 5,6 C 5,0 C 97 % 999,2 hPa 0,0 l/m 0 min 2 min 58 W/m 0,0 km/h (0 Bft) 95,74 %
10.03.2019 09:42 6,1 C 5,6 C 5,6 C 97 % 999,1 hPa 0,0 l/m 0 min 2 min 69 W/m 0,0 km/h (0 Bft) 95,74 %
10.03.2019 09:44 6,1 C 6,1 C 5,6 C 97 % 999,0 hPa 0,0 l/m 0 min 0 min 120 W/m 0,0 km/h (0 Bft) 95,74 %
10.03.2019 09:46 6,1 C 6,1 C 5,6 C 97 % 999,0 hPa 0,0 l/m 0 min 2 min 159 W/m 0,0 km/h (0 Bft) 95,65 %
10.03.2019 09:48 6,2 C 6,1 C 5,6 C 97 % 999,0 hPa 0,0 l/m 0 min 0 min 124 W/m 0,0 km/h (0 Bft) 95,74 %
10.03.2019 09:50 6,2 C 6,1 C 6,1 C 97 % 998,9 hPa 0,0 l/m 0 min 0 min 144 W/m 0,0 km/h (0 Bft) 95,74 %
10.03.2019 09:52 6,3 C 6,1 C 6,1 C 97 % 998,8 hPa 0,0 l/m 0 min 0 min 151 W/m 6,4 km/h (2 Bft) 97,87 %
10.03.2019 09:54 6,3 C 6,7 C 6,1 C 97 % 998,8 hPa 0,0 l/m 0 min 0 min 138 W/m 3,2 km/h (1 Bft) 95,74 %
10.03.2019 09:56 6,4 C 6,7 C 6,1 C 98 % 998,8 hPa 0,0 l/m 0 min 0 min 109 W/m 3,2 km/h (1 Bft) 95,74 %
10.03.2019 09:58 6,4 C 6,7 C 6,1 C 98 % 998,7 hPa 0,0 l/m 0 min 0 min 120 W/m 6,4 km/h (2 Bft) 100,00 %
10.03.2019 10:00 6,4 C 6,7 C 6,1 C 98 % 998,7 hPa 0,0 l/m 0 min 0 min 132 W/m 3,2 km/h (1 Bft) 100,00 %
10.03.2019 10:02 6,5 C 6,7 C 6,1 C 98 % 998,7 hPa 0,0 l/m 0 min 0 min 138 W/m 6,4 km/h (2 Bft) 97,87 %
10.03.2019 10:04 6,6 C 6,7 C 6,7 C 98 % 998,6 hPa 0,0 l/m 0 min 0 min 139 W/m 9,7 km/h (2 Bft) 95,74 %
10.03.2019 10:06 6,7 C 7,2 C 6,7 C 98 % 998,6 hPa 0,0 l/m 0 min 0 min 133 W/m 6,4 km/h (2 Bft) 100,00 %
10.03.2019 10:08 6,7 C 7,2 C 6,7 C 98 % 998,6 hPa 0,2 l/m 0 min 0 min 114 W/m 9,7 km/h (2 Bft) 100,00 %
10.03.2019 10:10 6,8 C 7,2 C 6,7 C 98 % 998,6 hPa 0,0 l/m 0 min 0 min 102 W/m 3,2 km/h (1 Bft) 100,00 %
10.03.2019 10:12 6,9 C 7,2 C 6,7 C 98 % 998,5 hPa 0,0 l/m 0 min 0 min 103 W/m 9,7 km/h (2 Bft) 100,00 %
10.03.2019 10:14 6,9 C 7,2 C 6,7 C 98 % 998,4 hPa 0,0 l/m 0 min 0 min 114 W/m 6,4 km/h (2 Bft) 100,00 %
10.03.2019 10:16 7,0 C 7,2 C 7,2 C 98 % 998,4 hPa 0,0 l/m 0 min 0 min 126 W/m 9,7 km/h (2 Bft) 100,00 %
10.03.2019 10:18 7,1 C 7,8 C 7,2 C 98 % 998,3 hPa 0,0 l/m 0 min 0 min 121 W/m 6,4 km/h (2 Bft) 100,00 %
10.03.2019 10:20 7,2 C 7,8 C 7,2 C 98 % 998,3 hPa 0,0 l/m 0 min 0 min 136 W/m 9,7 km/h (2 Bft) 100,00 %
10.03.2019 10:22 7,3 C 7,8 C 7,2 C 98 % 998,2 hPa 0,0 l/m 0 min 0 min 164 W/m 9,7 km/h (2 Bft) 100,00 %
10.03.2019 10:24 7,4 C 8,3 C 7,8 C 98 % 998,1 hPa 0,0 l/m 0 min 0 min 194 W/m 19,3 km/h (3 Bft) 100,00 %
10.03.2019 10:26 7,6 C 8,3 C 7,8 C 98 % 998,1 hPa 0,0 l/m 0 min 0 min 175 W/m 12,9 km/h (3 Bft) 100,00 %
10.03.2019 10:28 7,8 C 8,3 C 7,8 C 98 % 998,1 hPa 0,0 l/m 0 min 0 min 141 W/m 16,1 km/h (3 Bft) 100,00 %
10.03.2019 10:30 7,8 C 8,9 C 8,3 C 98 % 998,1 hPa 0,0 l/m 0 min 0 min 180 W/m 6,4 km/h (2 Bft) 100,00 %
10.03.2019 10:32 8,0 C 8,3 C 7,8 C 98 % 998,0 hPa 0,0 l/m 0 min 0 min 128 W/m 16,1 km/h (3 Bft) 100,00 %
10.03.2019 10:34 8,2 C 8,3 C 7,8 C 98 % 998,1 hPa 0,0 l/m 0 min 2 min 112 W/m 22,5 km/h (4 Bft) 100,00 %
10.03.2019 10:36 8,3 C 8,3 C 7,8 C 98 % 998,0 hPa 0,0 l/m 0 min 2 min 104 W/m 6,4 km/h (2 Bft) 97,87 %
10.03.2019 10:38 8,4 C 8,9 C 8,3 C 98 % 997,9 hPa 0,0 l/m 0 min 2 min 128 W/m 6,4 km/h (2 Bft) 100,00 %
10.03.2019 10:40 8,4 C 8,9 C 8,3 C 98 % 997,8 hPa 0,0 l/m 0 min 2 min 172 W/m 9,7 km/h (2 Bft) 97,87 %
10.03.2019 10:42 8,6 C 8,9 C 8,3 C 98 % 998,0 hPa 0,0 l/m 0 min 2 min 167 W/m 25,7 km/h (4 Bft) 100,00 %
10.03.2019 10:44 8,8 C 8,9 C 8,3 C 99 % 997,8 hPa 0,0 l/m 0 min 2 min 131 W/m 45,1 km/h (6 Bft) 97,83 %
10.03.2019 10:46 8,9 C 9,4 C 8,9 C 98 % 997,9 hPa 0,0 l/m 0 min 2 min 116 W/m 19,3 km/h (3 Bft) 100,00 %
10.03.2019 10:48 9,2 C 9,4 C 8,9 C 99 % 997,9 hPa 0,0 l/m 0 min 2 min 167 W/m 16,1 km/h (3 Bft) 100,00 %
10.03.2019 10:50 9,4 C 9,4 C 8,9 C 99 % 997,8 hPa 0,0 l/m 0 min 2 min 179 W/m 25,7 km/h (4 Bft) 100,00 %
10.03.2019 10:52 9,6 C 9,4 C 8,9 C 99 % 997,8 hPa 0,0 l/m 0 min 2 min 152 W/m 25,7 km/h (4 Bft) 97,87 %
10.03.2019 10:54 9,7 C 9,4 C 8,9 C 99 % 997,9 hPa 0,0 l/m 0 min 2 min 99 W/m 35,4 km/h (5 Bft) 100,00 %
10.03.2019 10:56 9,7 C 9,4 C 8,9 C 99 % 997,9 hPa 0,2 l/m 0 min 2 min 77 W/m 29,0 km/h (5 Bft) 100,00 %
10.03.2019 10:58 9,8 C 9,4 C 8,9 C 99 % 997,8 hPa 0,4 l/m 0 min 2 min 79 W/m 29,0 km/h (5 Bft) 100,00 %
10.03.2019 11:00 9,8 C 9,4 C 8,9 C 99 % 997,8 hPa 0,0 l/m 0 min 2 min 100 W/m 29,0 km/h (5 Bft) 100,00 %
10.03.2019 11:02 9,8 C 9,4 C 8,9 C 99 % 997,8 hPa 0,0 l/m 0 min 2 min 146 W/m 19,3 km/h (3 Bft) 97,87 %
10.03.2019 11:04 9,9 C 9,4 C 8,9 C 99 % 997,6 hPa 0,0 l/m 0 min 2 min 127 W/m 32,2 km/h (5 Bft) 100,00 %
10.03.2019 11:06 9,9 C 9,4 C 8,9 C 99 % 997,5 hPa 0,2 l/m 0 min 2 min 106 W/m 35,4 km/h (5 Bft) 100,00 %
10.03.2019 11:08 9,9 C 9,4 C 8,9 C 99 % 997,6 hPa 0,0 l/m 0 min 2 min 86 W/m 19,3 km/h (3 Bft) 100,00 %
10.03.2019 11:10 9,9 C 9,4 C 8,9 C 99 % 997,5 hPa 0,0 l/m 0 min 2 min 109 W/m 19,3 km/h (3 Bft) 100,00 %
10.03.2019 11:12 9,9 C 9,4 C 8,9 C 99 % 997,6 hPa 0,0 l/m 0 min 2 min 137 W/m 16,1 km/h (3 Bft) 100,00 %
10.03.2019 11:14 9,9 C 10,0 C 8,9 C 99 % 997,6 hPa 0,0 l/m 0 min 2 min 201 W/m 9,7 km/h (2 Bft) 100,00 %
10.03.2019 11:16 10,0 C 10,6 C 9,4 C 99 % 997,6 hPa 0,0 l/m 0 min 2 min 255 W/m 19,3 km/h (3 Bft) 100,00 %
10.03.2019 11:18 10,1 C 11,1 C 9,4 C 99 % 997,6 hPa 0,0 l/m 2 min 2 min 318 W/m 16,1 km/h (3 Bft) 100,00 %
10.03.2019 11:20 10,2 C 12,2 C 10,0 C 99 % 997,5 hPa 0,0 l/m 2 min 2 min 296 W/m 29,0 km/h (5 Bft) 100,00 %
10.03.2019 11:22 10,4 C 12,8 C 10,0 C 99 % 997,4 hPa 0,0 l/m 2 min 2 min 347 W/m 16,1 km/h (3 Bft) 100,00 %
10.03.2019 11:24 10,5 C 13,3 C 10,0 C 99 % 997,3 hPa 0,0 l/m 2 min 2 min 574 W/m 32,2 km/h (5 Bft) 100,00 %
10.03.2019 11:26 10,6 C 13,9 C 10,0 C 99 % 997,3 hPa 0,0 l/m 2 min 0 min 555 W/m 22,5 km/h (4 Bft) 95,74 %
10.03.2019 11:28 10,7 C 13,3 C 10,0 C 99 % 997,3 hPa 0,0 l/m 2 min 2 min 560 W/m 38,6 km/h (5 Bft) 100,00 %
10.03.2019 11:30 10,9 C 13,9 C 10,0 C 99 % 997,1 hPa 0,0 l/m 2 min 0 min 588 W/m 25,7 km/h (4 Bft) 100,00 %
10.03.2019 11:32 10,9 C 13,9 C 10,0 C 99 % 997,1 hPa 0,0 l/m 2 min 0 min 552 W/m 22,5 km/h (4 Bft) 100,00 %
10.03.2019 11:34 11,1 C 13,9 C 10,0 C 99 % 997,1 hPa 0,0 l/m 2 min 0 min 580 W/m 29,0 km/h (5 Bft) 100,00 %
10.03.2019 11:36 11,2 C 14,4 C 10,6 C 99 % 997,0 hPa 0,0 l/m 2 min 0 min 593 W/m 29,0 km/h (5 Bft) 97,87 %
10.03.2019 11:38 11,3 C 15,6 C 10,6 C 99 % 997,1 hPa 0,0 l/m 2 min 0 min 599 W/m 51,5 km/h (7 Bft) 93,62 %
10.03.2019 11:40 11,3 C 15,6 C 10,6 C 98 % 997,1 hPa 0,0 l/m 2 min 2 min 557 W/m 32,2 km/h (5 Bft) 97,87 %
10.03.2019 11:42 11,4 C 16,1 C 10,6 C 98 % 996,8 hPa 0,0 l/m 2 min 2 min 594 W/m 25,7 km/h (4 Bft) 95,65 %
10.03.2019 11:44 11,6 C 16,7 C 10,6 C 98 % 997,0 hPa 0,0 l/m 2 min 2 min 549 W/m 35,4 km/h (5 Bft) 95,74 %
10.03.2019 11:46 11,7 C 15,6 C 10,6 C 98 % 996,9 hPa 0,0 l/m 2 min 2 min 576 W/m 38,6 km/h (5 Bft) 95,74 %
10.03.2019 11:48 11,8 C 16,7 C 10,6 C 97 % 997,0 hPa 0,0 l/m 2 min 2 min 654 W/m 22,5 km/h (4 Bft) 97,87 %
10.03.2019 11:50 11,9 C 16,7 C 11,1 C 97 % 997,0 hPa 0,0 l/m 2 min 2 min 644 W/m 25,7 km/h (4 Bft) 97,87 %
10.03.2019 11:52 12,1 C 15,0 C 10,6 C 96 % 997,0 hPa 0,0 l/m 2 min 0 min 392 W/m 54,7 km/h (7 Bft) 95,74 %
10.03.2019 11:54 12,2 C 16,1 C 11,1 C 94 % 997,0 hPa 0,0 l/m 2 min 0 min 708 W/m 22,5 km/h (4 Bft) 93,48 %
10.03.2019 11:56 12,3 C 14,4 C 11,1 C 93 % 996,9 hPa 0,0 l/m 2 min 0 min 529 W/m 38,6 km/h (5 Bft) 91,49 %
10.03.2019 11:58 12,4 C 13,3 C 10,6 C 92 % 996,9 hPa 0,0 l/m 0 min 0 min 199 W/m 35,4 km/h (5 Bft) 95,74 %
10.03.2019 12:00 12,4 C 12,8 C 10,0 C 89 % 997,0 hPa 0,0 l/m 0 min 2 min 151 W/m 29,0 km/h (5 Bft) 93,62 %
10.03.2019 12:02 12,4 C 11,1 C 9,4 C 88 % 997,1 hPa 0,0 l/m 0 min 2 min 122 W/m 29,0 km/h (5 Bft) 93,62 %
10.03.2019 12:04 12,4 C 10,6 C 9,4 C 87 % 997,1 hPa 0,0 l/m 0 min 2 min 152 W/m 25,7 km/h (4 Bft) 91,49 %
10.03.2019 12:07 12,3 C 11,1 C 9,4 C 87 % 997,0 hPa 0,2 l/m 3 min 3 min 291 W/m 29,0 km/h (5 Bft) 92,86 %
10.03.2019 12:08 12,3 C 11,1 C 10,0 C 87 % 997,0 hPa 0,0 l/m 1 min 1 min 448 W/m 32,2 km/h (5 Bft) 95,65 %
10.03.2019 12:10 12,2 C 10,6 C 9,4 C 87 % 997,1 hPa 0,0 l/m 2 min 2 min 300 W/m 25,7 km/h (4 Bft) 93,62 %
10.03.2019 12:12 12,2 C 10,0 C 9,4 C 87 % 997,2 hPa 0,0 l/m 0 min 2 min 186 W/m 32,2 km/h (5 Bft) 93,62 %
10.03.2019 12:14 12,0 C 9,4 C 8,9 C 86 % 997,0 hPa 0,0 l/m 0 min 2 min 197 W/m 35,4 km/h (5 Bft) 93,62 %
10.03.2019 12:16 11,9 C 9,4 C 8,9 C 86 % 997,0 hPa 0,0 l/m 0 min 2 min 215 W/m 38,6 km/h (5 Bft) 93,62 %
10.03.2019 12:18 11,7 C 9,4 C 8,9 C 86 % 996,9 hPa 0,0 l/m 0 min 2 min 257 W/m 29,0 km/h (5 Bft) 95,65 %
10.03.2019 12:20 11,7 C 11,1 C 9,4 C 87 % 997,0 hPa 0,0 l/m 2 min 2 min 288 W/m 38,6 km/h (5 Bft) 91,49 %
10.03.2019 12:22 11,6 C 12,2 C 9,4 C 87 % 997,0 hPa 0,0 l/m 2 min 2 min 412 W/m 41,8 km/h (6 Bft) 95,74 %
10.03.2019 12:24 11,7 C 12,8 C 10,0 C 88 % 997,1 hPa 0,0 l/m 2 min 2 min 659 W/m 35,4 km/h (5 Bft) 95,74 %
10.03.2019 12:26 11,7 C 11,1 C 9,4 C 88 % 997,0 hPa 0,2 l/m 2 min 2 min 598 W/m 32,2 km/h (5 Bft) 93,62 %
10.03.2019 12:28 11,7 C 10,0 C 8,9 C 87 % 996,9 hPa 0,0 l/m 0 min 2 min 183 W/m 35,4 km/h (5 Bft) 95,74 %
10.03.2019 12:30 11,6 C 11,1 C 9,4 C 87 % 997,0 hPa 0,0 l/m 2 min 2 min 285 W/m 32,2 km/h (5 Bft) 93,48 %
10.03.2019 12:32 11,6 C 12,8 C 10,0 C 87 % 997,2 hPa 0,0 l/m 2 min 2 min 350 W/m 29,0 km/h (5 Bft) 95,12 %
10.03.2019 12:34 11,7 C 13,3 C 10,6 C 87 % 997,1 hPa 0,0 l/m 2 min 2 min 702 W/m 48,3 km/h (6 Bft) 95,92 %
10.03.2019 12:36 11,9 C 13,9 C 11,7 C 87 % 997,1 hPa 0,0 l/m 2 min 2 min 619 W/m 32,2 km/h (5 Bft) 95,74 %
10.03.2019 12:38 12,0 C 13,9 C 12,2 C 87 % 997,2 hPa 0,0 l/m 2 min 0 min 582 W/m 64,4 km/h (8 Bft) 95,74 %
10.03.2019 12:40 12,1 C 12,8 C 11,1 C 87 % 997,1 hPa 0,0 l/m 2 min 0 min 511 W/m 35,4 km/h (5 Bft) 95,74 %
10.03.2019 12:42 12,1 C 12,2 C 10,6 C 86 % 997,1 hPa 0,0 l/m 2 min 0 min 384 W/m 41,8 km/h (6 Bft) 95,65 %
10.03.2019 12:44 12,1 C 11,7 C 10,6 C 84 % 996,9 hPa 0,0 l/m 2 min 0 min 347 W/m 48,3 km/h (6 Bft) 97,87 %
10.03.2019 12:46 12,1 C 11,7 C 10,0 C 84 % 997,1 hPa 0,0 l/m 2 min 0 min 347 W/m 32,2 km/h (5 Bft) 97,87 %
10.03.2019 12:48 12,1 C 11,7 C 10,6 C 83 % 997,2 hPa 0,0 l/m 2 min 0 min 345 W/m 38,6 km/h (5 Bft) 97,87 %
10.03.2019 12:50 12,1 C 12,2 C 10,6 C 83 % 997,0 hPa 0,0 l/m 2 min 0 min 406 W/m 48,3 km/h (6 Bft) 95,74 %
10.03.2019 12:52 12,1 C 12,2 C 10,0 C 82 % 996,9 hPa 0,0 l/m 2 min 0 min 406 W/m 54,7 km/h (7 Bft) 95,74 %
10.03.2019 12:54 12,1 C 13,9 C 11,7 C 82 % 997,2 hPa 0,0 l/m 2 min 0 min 354 W/m 25,7 km/h (4 Bft) 97,83 %
10.03.2019 12:56 12,2 C 15,0 C 12,2 C 82 % 997,1 hPa 0,0 l/m 2 min 0 min 582 W/m 35,4 km/h (5 Bft) 95,74 %
10.03.2019 12:58 12,2 C 13,9 C 11,1 C 82 % 997,5 hPa 0,0 l/m 2 min 0 min 639 W/m 48,3 km/h (6 Bft) 95,74 %
10.03.2019 13:00 12,2 C 12,8 C 10,6 C 81 % 997,1 hPa 0,0 l/m 0 min 0 min 230 W/m 32,2 km/h (5 Bft) 97,87 %
10.03.2019 13:02 12,2 C 12,2 C 10,0 C 80 % 997,1 hPa 0,0 l/m 0 min 0 min 230 W/m 45,1 km/h (6 Bft) 95,83 %
10.03.2019 13:04 12,1 C 12,2 C 10,0 C 80 % 997,2 hPa 0,0 l/m 2 min 0 min 290 W/m 38,6 km/h (5 Bft) 97,87 %
10.03.2019 13:06 12,1 C 12,2 C 10,0 C 80 % 997,3 hPa 0,0 l/m 0 min 0 min 264 W/m 41,8 km/h (6 Bft) 97,83 %
10.03.2019 13:08 12,1 C 12,8 C 10,6 C 80 % 997,3 hPa 0,0 l/m 2 min 0 min 311 W/m 29,0 km/h (5 Bft) 97,87 %
10.03.2019 13:10 12,1 C 12,2 C 10,6 C 81 % 997,2 hPa 0,0 l/m 2 min 0 min 298 W/m 45,1 km/h (6 Bft) 97,87 %
10.03.2019 13:12 12,1 C 12,8 C 11,7 C 81 % 997,3 hPa 0,0 l/m 2 min 0 min 330 W/m 29,0 km/h (5 Bft) 97,87 %
10.03.2019 13:14 12,0 C 12,8 C 11,7 C 81 % 997,1 hPa 0,0 l/m 2 min 0 min 320 W/m 29,0 km/h (5 Bft) 97,87 %
10.03.2019 13:16 12,0 C 12,8 C 11,7 C 81 % 997,2 hPa 0,0 l/m 2 min 0 min 294 W/m 35,4 km/h (5 Bft) 97,87 %
10.03.2019 13:18 12,0 C 12,8 C 12,2 C 82 % 997,2 hPa 0,0 l/m 2 min 0 min 334 W/m 25,7 km/h (4 Bft) 97,83 %
10.03.2019 13:20 12,0 C 13,3 C 12,2 C 82 % 997,4 hPa 0,0 l/m 2 min 0 min 306 W/m 41,8 km/h (6 Bft) 97,87 %
10.03.2019 13:22 12,0 C 13,9 C 12,8 C 82 % 997,5 hPa 0,0 l/m 2 min 0 min 350 W/m 29,0 km/h (5 Bft) 97,87 %
10.03.2019 13:24 12,1 C 13,9 C 12,8 C 83 % 997,3 hPa 0,0 l/m 2 min 0 min 413 W/m 35,4 km/h (5 Bft) 100,00 %
10.03.2019 13:26 12,1 C 12,2 C 11,7 C 83 % 997,4 hPa 0,0 l/m 0 min 0 min 268 W/m 41,8 km/h (6 Bft) 93,62 %
10.03.2019 13:28 11,9 C 11,1 C 10,6 C 83 % 997,5 hPa 0,0 l/m 0 min 0 min 178 W/m 41,8 km/h (6 Bft) 97,87 %
10.03.2019 13:30 11,8 C 10,0 C 9,4 C 83 % 997,7 hPa 0,0 l/m 0 min 2 min 178 W/m 38,6 km/h (5 Bft) 97,83 %
10.03.2019 13:32 11,6 C 9,4 C 8,9 C 84 % 997,7 hPa 0,0 l/m 0 min 2 min 169 W/m 48,3 km/h (6 Bft) 95,74 %
10.03.2019 13:34 11,4 C 8,9 C 8,9 C 85 % 997,6 hPa 0,0 l/m 0 min 2 min 151 W/m 25,7 km/h (4 Bft) 95,74 %
10.03.2019 13:36 11,3 C 8,9 C 8,3 C 85 % 997,7 hPa 0,0 l/m 0 min 2 min 123 W/m 32,2 km/h (5 Bft) 100,00 %
10.03.2019 13:38 11,2 C 8,3 C 8,3 C 86 % 997,7 hPa 0,0 l/m 0 min 2 min 77 W/m 29,0 km/h (5 Bft) 100,00 %
10.03.2019 13:40 11,0 C 8,3 C 8,3 C 87 % 997,7 hPa 0,2 l/m 0 min 2 min 98 W/m 25,7 km/h (4 Bft) 97,87 %
10.03.2019 13:42 10,8 C 8,3 C 8,3 C 87 % 997,6 hPa 0,0 l/m 0 min 2 min 105 W/m 32,2 km/h (5 Bft) 97,83 %
10.03.2019 13:44 10,7 C 8,3 C 8,3 C 88 % 997,6 hPa 0,0 l/m 0 min 2 min 84 W/m 29,0 km/h (5 Bft) 97,87 %
10.03.2019 13:46 10,6 C 8,3 C 8,3 C 89 % 997,5 hPa 0,0 l/m 0 min 2 min 68 W/m 29,0 km/h (5 Bft) 100,00 %
10.03.2019 13:48 10,4 C 8,3 C 7,8 C 89 % 997,6 hPa 0,0 l/m 0 min 2 min 84 W/m 29,0 km/h (5 Bft) 100,00 %
10.03.2019 13:50 10,3 C 8,3 C 7,8 C 90 % 997,6 hPa 0,0 l/m 0 min 2 min 75 W/m 32,2 km/h (5 Bft) 97,87 %
10.03.2019 13:52 10,2 C 8,3 C 7,8 C 90 % 997,6 hPa 0,2 l/m 0 min 2 min 67 W/m 32,2 km/h (5 Bft) 97,87 %
10.03.2019 13:54 10,1 C 8,3 C 7,8 C 90 % 997,7 hPa 0,0 l/m 0 min 2 min 67 W/m 32,2 km/h (5 Bft) 97,83 %
10.03.2019 13:56 10,0 C 8,3 C 8,3 C 91 % 997,7 hPa 0,0 l/m 0 min 2 min 118 W/m 45,1 km/h (6 Bft) 100,00 %
10.03.2019 13:58 10,0 C 8,3 C 8,3 C 91 % 997,6 hPa 0,0 l/m 0 min 2 min 173 W/m 45,1 km/h (6 Bft) 100,00 %
10.03.2019 14:00 10,0 C 8,9 C 8,3 C 91 % 997,7 hPa 0,0 l/m 0 min 2 min 217 W/m 32,2 km/h (5 Bft) 100,00 %
10.03.2019 14:02 10,0 C 10,0 C 8,9 C 92 % 997,8 hPa 0,0 l/m 2 min 2 min 320 W/m 32,2 km/h (5 Bft) 100,00 %
10.03.2019 14:04 10,1 C 10,0 C 8,9 C 92 % 997,6 hPa 0,0 l/m 2 min 2 min 324 W/m 41,8 km/h (6 Bft) 100,00 %
10.03.2019 14:06 10,1 C 11,1 C 9,4 C 92 % 997,9 hPa 0,0 l/m 0 min 2 min 260 W/m 19,3 km/h (3 Bft) 97,87 %
10.03.2019 14:08 10,2 C 10,6 C 9,4 C 92 % 997,7 hPa 0,0 l/m 0 min 0 min 260 W/m 32,2 km/h (5 Bft) 97,87 %
10.03.2019 14:10 10,3 C 10,6 C 9,4 C 92 % 997,7 hPa 0,0 l/m 0 min 0 min 260 W/m 25,7 km/h (4 Bft) 97,87 %
10.03.2019 14:12 10,4 C 10,6 C 10,0 C 92 % 997,8 hPa 0,0 l/m 2 min 0 min 260 W/m 38,6 km/h (5 Bft) 97,87 %
10.03.2019 14:14 10,5 C 10,6 C 10,0 C 92 % 997,6 hPa 0,0 l/m 2 min 0 min 290 W/m 32,2 km/h (5 Bft) 97,87 %
10.03.2019 14:16 10,6 C 10,6 C 10,0 C 92 % 997,9 hPa 0,0 l/m 2 min 0 min 267 W/m 35,4 km/h (5 Bft) 95,65 %
10.03.2019 14:18 10,7 C 10,6 C 9,4 C 91 % 997,6 hPa 0,0 l/m 0 min 2 min 230 W/m 51,5 km/h (7 Bft) 97,87 %
10.03.2019 14:20 10,7 C 10,0 C 9,4 C 90 % 997,8 hPa 0,0 l/m 0 min 0 min 187 W/m 48,3 km/h (6 Bft) 97,87 %
10.03.2019 14:22 10,8 C 10,0 C 9,4 C 89 % 997,6 hPa 0,0 l/m 0 min 0 min 194 W/m 57,9 km/h (7 Bft) 97,87 %
10.03.2019 14:24 10,9 C 10,6 C 9,4 C 87 % 998,0 hPa 0,0 l/m 0 min 0 min 188 W/m 54,7 km/h (7 Bft) 97,87 %
10.03.2019 14:26 11,0 C 10,6 C 9,4 C 86 % 998,0 hPa 0,0 l/m 0 min 0 min 201 W/m 38,6 km/h (5 Bft) 97,96 %
10.03.2019 14:28 11,1 C 11,7 C 9,4 C 85 % 998,1 hPa 0,0 l/m 0 min 0 min 178 W/m 32,2 km/h (5 Bft) 97,87 %
10.03.2019 14:30 11,2 C 11,1 C 9,4 C 84 % 998,1 hPa 0,0 l/m 0 min 0 min 175 W/m 38,6 km/h (5 Bft) 95,74 %
10.03.2019 14:32 11,2 C 11,1 C 9,4 C 82 % 998,1 hPa 0,0 l/m 0 min 0 min 154 W/m 45,1 km/h (6 Bft) 93,62 %
10.03.2019 14:34 11,2 C 11,7 C 8,9 C 79 % 998,4 hPa 0,0 l/m 0 min 0 min 192 W/m 51,5 km/h (7 Bft) 97,87 %
10.03.2019 14:36 11,2 C 11,7 C 8,9 C 77 % 998,6 hPa 0,0 l/m 0 min 0 min 157 W/m 61,2 km/h (7 Bft) 97,92 %
10.03.2019 14:38 11,1 C 11,1 C 8,9 C 75 % 998,7 hPa 0,0 l/m 0 min 0 min 143 W/m 45,1 km/h (6 Bft) 91,30 %
10.03.2019 14:40 11,1 C 11,1 C 8,9 C 75 % 998,7 hPa 0,0 l/m 0 min 0 min 191 W/m 54,7 km/h (7 Bft) 97,87 %
10.03.2019 14:42 11,0 C 11,7 C 8,9 C 74 % 998,6 hPa 0,0 l/m 0 min 0 min 156 W/m 38,6 km/h (5 Bft) 93,62 %
10.03.2019 14:44 11,0 C 12,2 C 8,9 C 74 % 998,7 hPa 0,0 l/m 2 min 0 min 245 W/m 38,6 km/h (5 Bft) 93,62 %
10.03.2019 14:46 11,0 C 12,2 C 9,4 C 74 % 998,7 hPa 0,0 l/m 2 min 0 min 368 W/m 32,2 km/h (5 Bft) 95,74 %
10.03.2019 14:48 11,1 C 12,8 C 9,4 C 74 % 998,8 hPa 0,0 l/m 2 min 0 min 251 W/m 32,2 km/h (5 Bft) 91,49 %
10.03.2019 14:50 11,1 C 11,7 C 8,9 C 74 % 998,8 hPa 0,0 l/m 0 min 0 min 151 W/m 61,2 km/h (7 Bft) 89,13 %
10.03.2019 14:52 11,0 C 10,6 C 8,9 C 73 % 998,8 hPa 0,0 l/m 0 min 0 min 101 W/m 38,6 km/h (5 Bft) 100,00 %
10.03.2019 14:54 10,9 C 10,6 C 8,9 C 73 % 998,8 hPa 0,0 l/m 0 min 0 min 100 W/m 41,8 km/h (6 Bft) 95,74 %
10.03.2019 14:56 10,8 C 10,0 C 8,9 C 73 % 999,1 hPa 0,0 l/m 0 min 0 min 99 W/m 48,3 km/h (6 Bft) 95,74 %
10.03.2019 14:58 10,7 C 11,1 C 9,4 C 73 % 999,6 hPa 0,0 l/m 0 min 0 min 118 W/m 38,6 km/h (5 Bft) 89,36 %
10.03.2019 15:00 10,7 C 11,7 C 9,4 C 73 % 999,2 hPa 0,0 l/m 0 min 0 min 154 W/m 25,7 km/h (4 Bft) 91,49 %
10.03.2019 15:02 10,7 C 11,1 C 9,4 C 72 % 999,2 hPa 0,0 l/m 0 min 0 min 142 W/m 51,5 km/h (7 Bft) 91,30 %
10.03.2019 15:04 10,7 C 11,7 C 10,0 C 72 % 999,2 hPa 0,0 l/m 0 min 0 min 209 W/m 57,9 km/h (7 Bft) 97,87 %
10.03.2019 15:06 10,7 C 11,1 C 10,0 C 71 % 999,3 hPa 0,0 l/m 0 min 0 min 176 W/m 48,3 km/h (6 Bft) 91,49 %
10.03.2019 15:08 10,6 C 10,6 C 9,4 C 70 % 999,6 hPa 0,0 l/m 0 min 0 min 169 W/m 61,2 km/h (7 Bft) 95,74 %
10.03.2019 15:10 10,6 C 10,0 C 9,4 C 70 % 999,3 hPa 0,0 l/m 0 min 0 min 142 W/m 51,5 km/h (7 Bft) 97,87 %
10.03.2019 15:12 10,4 C 10,0 C 9,4 C 70 % 999,5 hPa 0,0 l/m 0 min 0 min 108 W/m 48,3 km/h (6 Bft) 95,65 %
10.03.2019 15:14 10,3 C 10,0 C 8,9 C 70 % 999,6 hPa 0,0 l/m 0 min 0 min 102 W/m 41,8 km/h (6 Bft) 97,87 %
10.03.2019 15:16 10,3 C 9,4 C 8,9 C 71 % 999,8 hPa 0,0 l/m 0 min 0 min 79 W/m 48,3 km/h (6 Bft) 97,87 %
10.03.2019 15:18 10,2 C 9,4 C 8,9 C 71 % 999,8 hPa 0,0 l/m 0 min 0 min 76 W/m 57,9 km/h (7 Bft) 97,87 %
10.03.2019 15:20 10,1 C 9,4 C 8,9 C 71 % 999,8 hPa 0,0 l/m 0 min 0 min 69 W/m 54,7 km/h (7 Bft) 97,87 %
10.03.2019 15:22 9,9 C 9,4 C 8,9 C 71 % 999,9 hPa 0,0 l/m 0 min 0 min 76 W/m 48,3 km/h (6 Bft) 97,87 %
10.03.2019 15:24 9,8 C 8,9 C 8,3 C 72 % 1000,0 hPa 0,0 l/m 0 min 0 min 65 W/m 54,7 km/h (7 Bft) 97,87 %
10.03.2019 15:26 9,7 C 8,9 C 8,3 C 72 % 1000,1 hPa 0,0 l/m 0 min 0 min 62 W/m 45,1 km/h (6 Bft) 93,48 %
10.03.2019 15:28 9,7 C 8,9 C 8,3 C 72 % 1000,4 hPa 0,0 l/m 0 min 0 min 55 W/m 45,1 km/h (6 Bft) 95,74 %
10.03.2019 15:30 9,6 C 8,9 C 8,3 C 73 % 1000,4 hPa 0,0 l/m 0 min 0 min 58 W/m 38,6 km/h (5 Bft) 95,74 %
10.03.2019 15:32 9,5 C 8,9 C 8,3 C 74 % 1000,5 hPa 0,0 l/m 0 min 0 min 61 W/m 35,4 km/h (5 Bft) 95,74 %
10.03.2019 15:34 9,4 C 8,9 C 8,3 C 74 % 1000,7 hPa 0,0 l/m 0 min 0 min 57 W/m 35,4 km/h (5 Bft) 95,74 %
10.03.2019 15:36 9,4 C 8,9 C 8,3 C 74 % 1000,7 hPa 0,0 l/m 0 min 0 min 62 W/m 61,2 km/h (7 Bft) 93,48 %
10.03.2019 15:38 9,4 C 8,9 C 8,3 C 74 % 1001,2 hPa 0,0 l/m 0 min 0 min 80 W/m 51,5 km/h (7 Bft) 97,92 %
10.03.2019 15:40 9,3 C 8,9 C 8,3 C 74 % 1000,8 hPa 0,0 l/m 0 min 0 min 86 W/m 41,8 km/h (6 Bft) 97,87 %
10.03.2019 15:42 9,2 C 8,9 C 8,3 C 74 % 1000,8 hPa 0,0 l/m 0 min 0 min 117 W/m 64,4 km/h (8 Bft) 95,74 %
10.03.2019 15:44 9,2 C 8,9 C 8,3 C 74 % 1000,7 hPa 0,0 l/m 0 min 0 min 112 W/m 41,8 km/h (6 Bft) 91,49 %
10.03.2019 15:46 9,1 C 8,9 C 8,3 C 74 % 1000,6 hPa 0,0 l/m 0 min 0 min 107 W/m 35,4 km/h (5 Bft) 95,74 %
10.03.2019 15:48 9,1 C 8,9 C 8,3 C 74 % 1000,7 hPa 0,0 l/m 0 min 0 min 102 W/m 77,2 km/h (9 Bft) 95,65 %
10.03.2019 15:50 9,1 C 8,9 C 7,8 C 74 % 1001,4 hPa 0,0 l/m 0 min 0 min 120 W/m 86,9 km/h (9 Bft) 97,87 %
10.03.2019 15:52 9,0 C 8,9 C 8,3 C 73 % 1001,3 hPa 0,0 l/m 0 min 0 min 123 W/m 51,5 km/h (7 Bft) 97,87 %
10.03.2019 15:54 9,0 C 8,9 C 8,3 C 73 % 1001,1 hPa 0,0 l/m 0 min 0 min 146 W/m 48,3 km/h (6 Bft) 95,74 %
10.03.2019 15:56 8,9 C 8,9 C 8,3 C 73 % 1001,5 hPa 0,0 l/m 0 min 0 min 148 W/m 64,4 km/h (8 Bft) 93,62 %
10.03.2019 15:58 8,9 C 8,9 C 8,3 C 74 % 1001,8 hPa 0,0 l/m 0 min 0 min 154 W/m 35,4 km/h (5 Bft) 97,87 %
10.03.2019 16:00 8,9 C 8,9 C 8,3 C 74 % 1001,7 hPa 0,0 l/m 0 min 0 min 123 W/m 45,1 km/h (6 Bft) 97,83 %
10.03.2019 16:02 8,9 C 8,3 C 7,8 C 74 % 1001,8 hPa 0,0 l/m 0 min 0 min 129 W/m 48,3 km/h (6 Bft) 95,74 %
10.03.2019 16:04 8,9 C 8,3 C 7,8 C 74 % 1001,6 hPa 0,0 l/m 0 min 0 min 115 W/m 61,2 km/h (7 Bft) 95,74 %
10.03.2019 16:06 8,8 C 8,9 C 8,3 C 73 % 1002,1 hPa 0,0 l/m 0 min 0 min 141 W/m 38,6 km/h (5 Bft) 95,74 %
10.03.2019 16:08 8,8 C 8,9 C 8,3 C 73 % 1002,0 hPa 0,0 l/m 2 min 0 min 168 W/m 32,2 km/h (5 Bft) 97,87 %
10.03.2019 16:10 8,9 C 8,9 C 8,3 C 74 % 1002,0 hPa 0,0 l/m 2 min 0 min 182 W/m 77,2 km/h (9 Bft) 97,87 %
10.03.2019 16:12 8,8 C 8,9 C 8,3 C 74 % 1002,0 hPa 0,0 l/m 0 min 0 min 155 W/m 45,1 km/h (6 Bft) 97,83 %
10.03.2019 16:14 8,8 C 8,9 C 7,8 C 74 % 1002,0 hPa 0,0 l/m 0 min 0 min 157 W/m 54,7 km/h (7 Bft) 97,87 %
10.03.2019 16:16 8,8 C 9,4 C 8,9 C 73 % 1002,1 hPa 0,0 l/m 2 min 0 min 249 W/m 70,8 km/h (8 Bft) 93,62 %
10.03.2019 16:18 8,9 C 9,4 C 8,9 C 73 % 1002,6 hPa 0,0 l/m 2 min 0 min 325 W/m 35,4 km/h (5 Bft) 95,74 %
10.03.2019 16:20 8,9 C 9,4 C 8,3 C 73 % 1002,7 hPa 0,0 l/m 2 min 0 min 284 W/m 61,2 km/h (7 Bft) 93,62 %
10.03.2019 16:22 8,9 C 9,4 C 8,3 C 73 % 1002,3 hPa 0,0 l/m 2 min 0 min 163 W/m 54,7 km/h (7 Bft) 97,83 %
10.03.2019 16:24 8,9 C 9,4 C 8,3 C 74 % 1002,4 hPa 0,0 l/m 2 min 0 min 163 W/m 32,2 km/h (5 Bft) 97,87 %
10.03.2019 16:26 8,9 C 9,4 C 8,9 C 73 % 1002,4 hPa 0,0 l/m 2 min 0 min 167 W/m 48,3 km/h (6 Bft) 95,74 %
10.03.2019 16:28 8,8 C 8,9 C 7,8 C 73 % 1002,6 hPa 0,0 l/m 2 min 0 min 282 W/m 61,2 km/h (7 Bft) 100,00 %
10.03.2019 16:30 8,8 C 8,3 C 7,8 C 73 % 1002,6 hPa 0,0 l/m 0 min 0 min 121 W/m 48,3 km/h (6 Bft) 97,87 %
10.03.2019 16:32 8,7 C 8,3 C 7,8 C 74 % 1002,8 hPa 0,0 l/m 0 min 0 min 106 W/m 48,3 km/h (6 Bft) 97,87 %
10.03.2019 16:34 8,6 C 8,3 C 7,8 C 74 % 1003,0 hPa 0,0 l/m 0 min 0 min 114 W/m 41,8 km/h (6 Bft) 97,87 %
10.03.2019 16:36 8,5 C 7,8 C 7,8 C 74 % 1003,1 hPa 0,0 l/m 0 min 0 min 91 W/m 41,8 km/h (6 Bft) 97,83 %
10.03.2019 16:38 8,4 C 7,8 C 7,2 C 75 % 1003,1 hPa 0,0 l/m 0 min 0 min 124 W/m 57,9 km/h (7 Bft) 95,74 %
10.03.2019 16:40 8,3 C 8,3 C 7,2 C 75 % 1003,3 hPa 0,0 l/m 0 min 0 min 107 W/m 70,8 km/h (8 Bft) 100,00 %
10.03.2019 16:42 8,3 C 8,9 C 7,8 C 76 % 1003,4 hPa 0,0 l/m 0 min 0 min 128 W/m 45,1 km/h (6 Bft) 93,62 %
10.03.2019 16:44 8,3 C 8,3 C 7,2 C 76 % 1003,4 hPa 0,0 l/m 2 min 0 min 212 W/m 45,1 km/h (6 Bft) 93,62 %
10.03.2019 16:46 8,2 C 7,8 C 7,2 C 76 % 1003,5 hPa 0,0 l/m 0 min 0 min 79 W/m 54,7 km/h (7 Bft) 97,83 %
10.03.2019 16:48 8,1 C 7,8 C 7,2 C 76 % 1003,6 hPa 0,0 l/m 0 min 0 min 88 W/m 64,4 km/h (8 Bft) 97,87 %
10.03.2019 16:50 8,1 C 7,2 C 7,2 C 76 % 1003,7 hPa 0,0 l/m 0 min 0 min 48 W/m 48,3 km/h (6 Bft) 95,74 %
10.03.2019 16:52 8,0 C 7,2 C 6,7 C 77 % 1003,9 hPa 0,0 l/m 0 min 0 min 31 W/m 32,2 km/h (5 Bft) 97,87 %
10.03.2019 16:54 7,9 C 7,2 C 6,7 C 77 % 1003,7 hPa 0,0 l/m 0 min 0 min 17 W/m 45,1 km/h (6 Bft) 95,74 %
10.03.2019 16:56 7,9 C 7,2 C 6,7 C 77 % 1004,1 hPa 0,0 l/m 0 min 0 min 10 W/m 41,8 km/h (6 Bft) 97,87 %
10.03.2019 16:58 7,8 C 7,2 C 6,7 C 78 % 1004,2 hPa 0,0 l/m 0 min 0 min 9 W/m 38,6 km/h (5 Bft) 97,83 %
10.03.2019 17:00 7,7 C 6,7 C 6,7 C 78 % 1004,3 hPa 0,0 l/m 0 min 0 min 11 W/m 51,5 km/h (7 Bft) 97,87 %
10.03.2019 17:02 7,7 C 6,7 C 6,7 C 78 % 1004,4 hPa 0,0 l/m 0 min 0 min 12 W/m 45,1 km/h (6 Bft) 97,87 %
10.03.2019 17:04 7,6 C 6,7 C 6,1 C 79 % 1004,5 hPa 0,0 l/m 0 min 0 min 14 W/m 45,1 km/h (6 Bft) 97,87 %
10.03.2019 17:06 7,6 C 6,7 C 6,1 C 79 % 1004,7 hPa 0,0 l/m 0 min 0 min 20 W/m 48,3 km/h (6 Bft) 97,87 %
10.03.2019 17:08 7,5 C 6,7 C 6,1 C 79 % 1004,8 hPa 0,0 l/m 0 min 0 min 21 W/m 48,3 km/h (6 Bft) 91,49 %
10.03.2019 17:10 7,4 C 6,7 C 6,1 C 79 % 1004,8 hPa 0,0 l/m 0 min 0 min 25 W/m 51,5 km/h (7 Bft) 95,65 %
10.03.2019 17:12 7,4 C 6,7 C 6,1 C 80 % 1005,0 hPa 0,0 l/m 0 min 2 min 18 W/m 41,8 km/h (6 Bft) 97,87 %
10.03.2019 17:14 7,3 C 6,1 C 5,6 C 80 % 1005,0 hPa 0,0 l/m 0 min 2 min 17 W/m 41,8 km/h (6 Bft) 97,87 %
10.03.2019 17:16 7,2 C 6,1 C 5,6 C 81 % 1005,2 hPa 0,0 l/m 0 min 2 min 15 W/m 57,9 km/h (7 Bft) 97,87 %
10.03.2019 17:18 7,2 C 6,1 C 5,6 C 81 % 1005,4 hPa 0,0 l/m 0 min 2 min 17 W/m 57,9 km/h (7 Bft) 95,74 %
10.03.2019 17:20 7,1 C 6,1 C 5,6 C 82 % 1005,6 hPa 0,0 l/m 0 min 2 min 16 W/m 38,6 km/h (5 Bft) 95,74 %
10.03.2019 17:22 7,0 C 6,1 C 5,6 C 82 % 1005,5 hPa 0,0 l/m 0 min 2 min 12 W/m 54,7 km/h (7 Bft) 95,65 %
10.03.2019 17:24 6,9 C 6,1 C 5,6 C 82 % 1005,5 hPa 0,0 l/m 0 min 2 min 15 W/m 48,3 km/h (6 Bft) 97,87 %
10.03.2019 17:26 6,9 C 6,1 C 5,6 C 82 % 1005,7 hPa 0,0 l/m 0 min 2 min 16 W/m 38,6 km/h (5 Bft) 97,87 %
10.03.2019 17:28 6,8 C 6,1 C 5,6 C 83 % 1005,8 hPa 0,0 l/m 0 min 2 min 14 W/m 51,5 km/h (7 Bft) 100,00 %
10.03.2019 17:30 6,7 C 6,1 C 5,6 C 83 % 1006,1 hPa 0,0 l/m 0 min 2 min 13 W/m 38,6 km/h (5 Bft) 95,74 %
10.03.2019 17:32 6,7 C 6,1 C 5,6 C 83 % 1006,0 hPa 0,0 l/m 0 min 2 min 15 W/m 48,3 km/h (6 Bft) 97,62 %
10.03.2019 17:34 6,6 C 6,1 C 5,6 C 83 % 1006,2 hPa 0,0 l/m 0 min 2 min 20 W/m 48,3 km/h (6 Bft) 100,00 %
10.03.2019 17:36 6,6 C 6,1 C 5,6 C 83 % 1006,2 hPa 0,0 l/m 0 min 2 min 19 W/m 35,4 km/h (5 Bft) 100,00 %
10.03.2019 17:38 6,5 C 6,1 C 5,6 C 84 % 1006,3 hPa 0,0 l/m 0 min 2 min 20 W/m 41,8 km/h (6 Bft) 97,87 %
10.03.2019 17:40 6,5 C 5,6 C 5,0 C 84 % 1006,3 hPa 0,0 l/m 0 min 2 min 22 W/m 32,2 km/h (5 Bft) 95,74 %
10.03.2019 17:42 6,4 C 5,6 C 5,0 C 84 % 1006,6 hPa 0,0 l/m 0 min 2 min 39 W/m 45,1 km/h (6 Bft) 100,00 %
10.03.2019 17:44 6,4 C 5,6 C 5,0 C 84 % 1006,4 hPa 0,0 l/m 0 min 2 min 38 W/m 51,5 km/h (7 Bft) 100,00 %
10.03.2019 17:46 6,4 C 5,6 C 5,0 C 85 % 1006,5 hPa 0,0 l/m 0 min 2 min 32 W/m 32,2 km/h (5 Bft) 100,00 %
10.03.2019 17:48 6,3 C 5,6 C 5,0 C 85 % 1006,7 hPa 0,0 l/m 0 min 2 min 25 W/m 41,8 km/h (6 Bft) 100,00 %
10.03.2019 17:50 6,3 C 5,6 C 5,0 C 86 % 1006,7 hPa 0,0 l/m 0 min 2 min 22 W/m 29,0 km/h (5 Bft) 100,00 %
10.03.2019 17:52 6,2 C 5,6 C 5,0 C 86 % 1006,7 hPa 0,0 l/m 0 min 2 min 16 W/m 48,3 km/h (6 Bft) 100,00 %
10.03.2019 17:54 6,2 C 5,6 C 4,4 C 86 % 1006,8 hPa 0,0 l/m 0 min 2 min 15 W/m 32,2 km/h (5 Bft) 100,00 %
10.03.2019 17:56 6,2 C 5,6 C 4,4 C 86 % 1006,9 hPa 0,0 l/m 0 min 2 min 23 W/m 45,1 km/h (6 Bft) 97,87 %
10.03.2019 17:58 6,1 C 5,0 C 4,4 C 87 % 1006,9 hPa 0,0 l/m 0 min 2 min 14 W/m 29,0 km/h (5 Bft) 100,00 %
10.03.2019 18:00 6,1 C 5,0 C 4,4 C 87 % 1007,0 hPa 0,0 l/m 0 min 2 min 11 W/m 41,8 km/h (6 Bft) 100,00 %
10.03.2019 18:02 6,0 C 5,0 C 4,4 C 87 % 1007,1 hPa 0,0 l/m 0 min 2 min 11 W/m 35,4 km/h (5 Bft) 100,00 %
10.03.2019 18:04 6,0 C 5,0 C 4,4 C 87 % 1007,1 hPa 0,0 l/m 0 min 2 min 15 W/m 32,2 km/h (5 Bft) 100,00 %
10.03.2019 18:07 5,9 C 5,0 C 4,4 C 88 % 1007,2 hPa 0,0 l/m 0 min 3 min 12 W/m 29,0 km/h (5 Bft) 100,00 %
10.03.2019 18:08 5,9 C 5,0 C 4,4 C 88 % 1007,2 hPa 0,0 l/m 0 min 1 min 10 W/m 29,0 km/h (5 Bft) 100,00 %
10.03.2019 18:10 5,9 C 5,0 C 3,9 C 89 % 1007,2 hPa 0,0 l/m 0 min 2 min 6 W/m 29,0 km/h (5 Bft) 100,00 %
10.03.2019 18:12 5,8 C 5,0 C 3,9 C 89 % 1007,3 hPa 0,0 l/m 0 min 2 min 5 W/m 29,0 km/h (5 Bft) 100,00 %
10.03.2019 18:14 5,8 C 5,0 C 4,4 C 89 % 1007,4 hPa 0,0 l/m 0 min 2 min 12 W/m 35,4 km/h (5 Bft) 97,87 %
10.03.2019 18:16 5,8 C 4,4 C 3,9 C 89 % 1007,5 hPa 0,2 l/m 0 min 2 min 10 W/m 25,7 km/h (4 Bft) 95,74 %
10.03.2019 18:18 5,8 C 4,4 C 3,9 C 89 % 1007,3 hPa 0,0 l/m 0 min 2 min 5 W/m 25,7 km/h (4 Bft) 97,87 %
10.03.2019 18:20 5,8 C 4,4 C 3,9 C 90 % 1007,5 hPa 0,0 l/m 0 min 2 min 1 W/m 25,7 km/h (4 Bft) 97,83 %
10.03.2019 18:22 5,7 C 4,4 C 3,9 C 90 % 1007,5 hPa 0,0 l/m 0 min 2 min 0 W/m 25,7 km/h (4 Bft) 95,74 %
10.03.2019 18:24 5,7 C 4,4 C 3,9 C 90 % 1007,6 hPa 0,0 l/m 0 min 2 min 0 W/m 19,3 km/h (3 Bft) 97,87 %
10.03.2019 18:26 5,7 C 4,4 C 3,9 C 90 % 1007,5 hPa 0,0 l/m 0 min 2 min 0 W/m 22,5 km/h (4 Bft) 93,62 %
10.03.2019 18:28 5,7 C 4,4 C 3,9 C 90 % 1007,6 hPa 0,0 l/m 0 min 2 min 0 W/m 22,5 km/h (4 Bft) 97,87 %
10.03.2019 18:30 5,7 C 5,0 C 3,9 C 90 % 1007,6 hPa 0,0 l/m 0 min 2 min 0 W/m 29,0 km/h (5 Bft) 95,74 %
10.03.2019 18:32 5,7 C 5,0 C 3,9 C 90 % 1007,7 hPa 0,0 l/m 0 min 2 min 0 W/m 19,3 km/h (3 Bft) 97,83 %
10.03.2019 18:34 5,7 C 5,0 C 3,9 C 90 % 1007,8 hPa 0,0 l/m 0 min 2 min 0 W/m 29,0 km/h (5 Bft) 97,87 %
10.03.2019 18:36 5,7 C 5,0 C 3,9 C 90 % 1007,8 hPa 0,0 l/m 0 min 2 min 0 W/m 22,5 km/h (4 Bft) 97,87 %
10.03.2019 18:38 5,7 C 5,0 C 3,9 C 90 % 1007,8 hPa 0,0 l/m 0 min 2 min 0 W/m 22,5 km/h (4 Bft) 95,83 %
10.03.2019 18:40 5,7 C 5,0 C 3,9 C 90 % 1007,8 hPa 0,0 l/m 0 min 2 min 0 W/m 25,7 km/h (4 Bft) 95,74 %
10.03.2019 18:42 5,7 C 5,0 C 3,9 C 90 % 1007,8 hPa 0,0 l/m 0 min 2 min 0 W/m 25,7 km/h (4 Bft) 95,65 %
10.03.2019 18:44 5,7 C 5,0 C 3,9 C 90 % 1007,8 hPa 0,0 l/m 0 min 2 min 0 W/m 22,5 km/h (4 Bft) 93,62 %
10.03.2019 18:46 5,6 C 5,0 C 3,9 C 90 % 1007,9 hPa 0,0 l/m 0 min 2 min 0 W/m 25,7 km/h (4 Bft) 95,74 %
10.03.2019 18:48 5,7 C 5,0 C 3,9 C 90 % 1008,0 hPa 0,0 l/m 0 min 2 min 0 W/m 16,1 km/h (3 Bft) 95,74 %
10.03.2019 18:50 5,7 C 5,0 C 3,9 C 90 % 1008,0 hPa 0,0 l/m 0 min 2 min 0 W/m 19,3 km/h (3 Bft) 95,74 %
10.03.2019 18:52 5,7 C 5,0 C 3,9 C 90 % 1007,9 hPa 0,0 l/m 0 min 2 min 0 W/m 38,6 km/h (5 Bft) 93,62 %
10.03.2019 18:54 5,6 C 5,6 C 3,9 C 90 % 1007,9 hPa 0,0 l/m 0 min 2 min 0 W/m 29,0 km/h (5 Bft) 95,65 %
10.03.2019 18:56 5,6 C 5,6 C 3,9 C 89 % 1008,0 hPa 0,0 l/m 0 min 2 min 0 W/m 35,4 km/h (5 Bft) 95,74 %
10.03.2019 18:58 5,7 C 5,6 C 3,9 C 88 % 1008,1 hPa 0,0 l/m 0 min 2 min 0 W/m 25,7 km/h (4 Bft) 95,74 %
10.03.2019 19:00 5,7 C 5,6 C 3,9 C 87 % 1008,0 hPa 0,0 l/m 0 min 2 min 0 W/m 48,3 km/h (6 Bft) 93,62 %
10.03.2019 19:02 5,8 C 5,6 C 4,4 C 86 % 1008,2 hPa 0,0 l/m 0 min 2 min 0 W/m 35,4 km/h (5 Bft) 95,74 %
10.03.2019 19:04 5,8 C 5,6 C 4,4 C 86 % 1008,3 hPa 0,0 l/m 0 min 2 min 0 W/m 22,5 km/h (4 Bft) 95,74 %
10.03.2019 19:06 5,9 C 5,6 C 4,4 C 85 % 1008,3 hPa 0,0 l/m 0 min 2 min 0 W/m 22,5 km/h (4 Bft) 95,65 %
10.03.2019 19:08 5,9 C 5,6 C 4,4 C 85 % 1008,4 hPa 0,0 l/m 0 min 2 min 0 W/m 25,7 km/h (4 Bft) 95,74 %
10.03.2019 19:10 5,9 C 5,6 C 4,4 C 84 % 1008,4 hPa 0,0 l/m 0 min 0 min 0 W/m 22,5 km/h (4 Bft) 95,74 %
10.03.2019 19:12 6,0 C 5,6 C 4,4 C 84 % 1008,4 hPa 0,0 l/m 0 min 0 min 0 W/m 22,5 km/h (4 Bft) 95,74 %
10.03.2019 19:14 6,1 C 5,6 C 5,0 C 83 % 1008,3 hPa 0,0 l/m 0 min 0 min 0 W/m 29,0 km/h (5 Bft) 95,74 %
10.03.2019 19:16 6,1 C 5,6 C 5,0 C 83 % 1008,5 hPa 0,0 l/m 0 min 0 min 0 W/m 22,5 km/h (4 Bft) 93,62 %
10.03.2019 19:18 6,1 C 6,1 C 5,0 C 82 % 1008,5 hPa 0,0 l/m 0 min 0 min 0 W/m 29,0 km/h (5 Bft) 95,65 %
10.03.2019 19:20 6,2 C 6,1 C 5,0 C 82 % 1008,6 hPa 0,0 l/m 0 min 0 min 0 W/m 22,5 km/h (4 Bft) 95,74 %
10.03.2019 19:22 6,2 C 5,6 C 5,0 C 81 % 1008,9 hPa 0,0 l/m 0 min 0 min 0 W/m 32,2 km/h (5 Bft) 97,87 %
10.03.2019 19:24 6,2 C 5,6 C 5,0 C 81 % 1008,8 hPa 0,0 l/m 0 min 0 min 0 W/m 35,4 km/h (5 Bft) 97,87 %
10.03.2019 19:26 6,2 C 5,6 C 5,0 C 80 % 1008,8 hPa 0,0 l/m 0 min 0 min 0 W/m 48,3 km/h (6 Bft) 97,87 %
10.03.2019 19:28 6,2 C 5,6 C 5,0 C 80 % 1008,9 hPa 0,0 l/m 0 min 0 min 0 W/m 41,8 km/h (6 Bft) 97,87 %
10.03.2019 19:30 6,2 C 5,6 C 5,0 C 78 % 1008,9 hPa 0,0 l/m 0 min 0 min 0 W/m 45,1 km/h (6 Bft) 97,83 %
10.03.2019 19:32 6,2 C 5,6 C 5,0 C 78 % 1009,1 hPa 0,0 l/m 0 min 0 min 0 W/m 32,2 km/h (5 Bft) 97,87 %
10.03.2019 19:34 6,2 C 5,6 C 5,0 C 78 % 1009,1 hPa 0,0 l/m 0 min 0 min 0 W/m 29,0 km/h (5 Bft) 97,87 %
10.03.2019 19:36 6,2 C 5,6 C 4,4 C 78 % 1009,3 hPa 0,0 l/m 0 min 0 min 0 W/m 29,0 km/h (5 Bft) 93,62 %
10.03.2019 19:38 6,1 C 5,6 C 5,0 C 78 % 1009,1 hPa 0,0 l/m 0 min 0 min 0 W/m 54,7 km/h (7 Bft) 95,74 %
10.03.2019 19:40 6,1 C 5,6 C 4,4 C 77 % 1009,4 hPa 0,0 l/m 0 min 0 min 0 W/m 45,1 km/h (6 Bft) 97,87 %
10.03.2019 19:42 6,1 C 5,6 C 5,0 C 77 % 1009,4 hPa 0,0 l/m 0 min 0 min 0 W/m 54,7 km/h (7 Bft) 97,83 %
10.03.2019 19:44 6,1 C 5,6 C 4,4 C 77 % 1009,4 hPa 0,0 l/m 0 min 0 min 0 W/m 29,0 km/h (5 Bft) 93,62 %
10.03.2019 19:46 6,0 C 5,0 C 4,4 C 77 % 1009,5 hPa 0,0 l/m 0 min 0 min 0 W/m 35,4 km/h (5 Bft) 95,74 %
10.03.2019 19:48 5,9 C 5,0 C 4,4 C 77 % 1009,6 hPa 0,0 l/m 0 min 0 min 0 W/m 29,0 km/h (5 Bft) 95,74 %
10.03.2019 19:50 5,9 C 5,0 C 4,4 C 77 % 1009,5 hPa 0,0 l/m 0 min 0 min 0 W/m 45,1 km/h (6 Bft) 97,87 %
10.03.2019 19:52 5,8 C 5,0 C 4,4 C 77 % 1009,8 hPa 0,0 l/m 0 min 0 min 0 W/m 41,8 km/h (6 Bft) 97,83 %
10.03.2019 19:54 5,8 C 5,0 C 4,4 C 77 % 1010,0 hPa 0,0 l/m 0 min 0 min 0 W/m 25,7 km/h (4 Bft) 97,87 %
10.03.2019 19:56 5,8 C 5,0 C 4,4 C 77 % 1009,8 hPa 0,0 l/m 0 min 0 min 0 W/m 35,4 km/h (5 Bft) 97,87 %
10.03.2019 19:58 5,7 C 5,0 C 4,4 C 77 % 1010,1 hPa 0,0 l/m 0 min 0 min 0 W/m 32,2 km/h (5 Bft) 97,87 %
10.03.2019 20:00 5,7 C 5,0 C 4,4 C 78 % 1010,2 hPa 0,0 l/m 0 min 0 min 0 W/m 32,2 km/h (5 Bft) 95,74 %
10.03.2019 20:02 5,6 C 5,0 C 4,4 C 78 % 1010,2 hPa 0,0 l/m 0 min 0 min 0 W/m 25,7 km/h (4 Bft) 97,87 %
10.03.2019 20:04 5,6 C 5,0 C 4,4 C 78 % 1010,2 hPa 0,0 l/m 0 min 0 min 0 W/m 22,5 km/h (4 Bft) 95,65 %
10.03.2019 20:06 5,6 C 5,0 C 3,9 C 78 % 1010,2 hPa 0,0 l/m 0 min 0 min 0 W/m 29,0 km/h (5 Bft) 97,87 %
10.03.2019 20:08 5,5 C 5,0 C 3,9 C 79 % 1010,3 hPa 0,0 l/m 0 min 0 min 0 W/m 29,0 km/h (5 Bft) 95,74 %
10.03.2019 20:10 5,4 C 4,4 C 3,9 C 79 % 1010,3 hPa 0,0 l/m 0 min 0 min 0 W/m 25,7 km/h (4 Bft) 95,74 %
10.03.2019 20:12 5,4 C 4,4 C 3,9 C 79 % 1010,3 hPa 0,0 l/m 0 min 0 min 0 W/m 22,5 km/h (4 Bft) 97,87 %
10.03.2019 20:14 5,4 C 5,0 C 3,9 C 79 % 1010,4 hPa 0,0 l/m 0 min 0 min 0 W/m 45,1 km/h (6 Bft) 97,87 %
10.03.2019 20:16 5,4 C 5,0 C 4,4 C 79 % 1010,4 hPa 0,0 l/m 0 min 0 min 0 W/m 25,7 km/h (4 Bft) 97,83 %
10.03.2019 20:18 5,4 C 5,0 C 4,4 C 80 % 1010,5 hPa 0,0 l/m 0 min 0 min 0 W/m 25,7 km/h (4 Bft) 97,87 %
10.03.2019 20:20 5,4 C 5,0 C 4,4 C 80 % 1010,6 hPa 0,0 l/m 0 min 0 min 0 W/m 16,1 km/h (3 Bft) 97,87 %
10.03.2019 20:22 5,4 C 5,0 C 4,4 C 80 % 1010,7 hPa 0,0 l/m 0 min 0 min 0 W/m 16,1 km/h (3 Bft) 100,00 %
10.03.2019 20:24 5,4 C 5,0 C 4,4 C 80 % 1010,8 hPa 0,0 l/m 0 min 0 min 0 W/m 19,3 km/h (3 Bft) 100,00 %
10.03.2019 20:26 5,3 C 5,0 C 4,4 C 80 % 1010,8 hPa 0,0 l/m 0 min 0 min 0 W/m 29,0 km/h (5 Bft) 97,87 %
10.03.2019 20:28 5,4 C 5,0 C 4,4 C 80 % 1010,7 hPa 0,0 l/m 0 min 0 min 0 W/m 19,3 km/h (3 Bft) 100,00 %
10.03.2019 20:30 5,3 C 5,0 C 4,4 C 80 % 1010,7 hPa 0,0 l/m 0 min 2 min 0 W/m 16,1 km/h (3 Bft) 97,87 %
10.03.2019 20:32 5,3 C 5,0 C 3,9 C 81 % 1011,0 hPa 0,0 l/m 0 min 0 min 0 W/m 19,3 km/h (3 Bft) 100,00 %
10.03.2019 20:34 5,4 C 5,0 C 3,9 C 81 % 1011,1 hPa 0,0 l/m 0 min 2 min 0 W/m 16,1 km/h (3 Bft) 97,87 %
10.03.2019 20:36 5,4 C 5,0 C 3,9 C 81 % 1011,2 hPa 0,0 l/m 0 min 2 min 0 W/m 29,0 km/h (5 Bft) 100,00 %
10.03.2019 20:38 5,4 C 4,4 C 3,9 C 81 % 1011,0 hPa 0,0 l/m 0 min 2 min 0 W/m 41,8 km/h (6 Bft) 100,00 %
10.03.2019 20:40 5,4 C 4,4 C 3,3 C 82 % 1010,9 hPa 0,0 l/m 0 min 2 min 0 W/m 22,5 km/h (4 Bft) 100,00 %
10.03.2019 20:42 5,3 C 3,9 C 2,8 C 82 % 1011,1 hPa 0,0 l/m 0 min 2 min 0 W/m 45,1 km/h (6 Bft) 97,87 %
10.03.2019 20:44 5,2 C 3,9 C 2,8 C 83 % 1011,2 hPa 0,0 l/m 0 min 2 min 0 W/m 61,2 km/h (7 Bft) 100,00 %
10.03.2019 20:46 5,1 C 3,3 C 2,2 C 83 % 1011,3 hPa 0,2 l/m 0 min 2 min 0 W/m 38,6 km/h (5 Bft) 97,87 %
10.03.2019 20:48 4,8 C 2,8 C 2,2 C 84 % 1011,4 hPa 0,0 l/m 0 min 2 min 0 W/m 38,6 km/h (5 Bft) 100,00 %
10.03.2019 20:50 4,7 C 2,8 C 2,2 C 85 % 1011,3 hPa 0,2 l/m 0 min 2 min 0 W/m 38,6 km/h (5 Bft) 97,83 %
10.03.2019 20:52 4,5 C 2,8 C 2,2 C 86 % 1011,4 hPa 0,2 l/m 0 min 2 min 0 W/m 29,0 km/h (5 Bft) 97,87 %
10.03.2019 20:54 4,3 C 2,2 C 1,7 C 86 % 1011,4 hPa 0,2 l/m 0 min 2 min 0 W/m 48,3 km/h (6 Bft) 100,00 %
10.03.2019 20:56 4,2 C 2,2 C 1,7 C 87 % 1011,8 hPa 0,2 l/m 0 min 2 min 0 W/m 45,1 km/h (6 Bft) 100,00 %
10.03.2019 20:58 3,9 C 2,2 C 1,7 C 87 % 1012,0 hPa 0,2 l/m 0 min 2 min 0 W/m 29,0 km/h (5 Bft) 97,87 %
10.03.2019 21:00 3,7 C 1,7 C 1,7 C 88 % 1012,1 hPa 0,4 l/m 0 min 2 min 0 W/m 29,0 km/h (5 Bft) 97,87 %
10.03.2019 21:02 3,6 C 1,7 C 1,7 C 88 % 1011,9 hPa 0,0 l/m 0 min 2 min 0 W/m 25,7 km/h (4 Bft) 100,00 %
10.03.2019 21:04 3,4 C 1,7 C 1,7 C 89 % 1011,7 hPa 0,2 l/m 0 min 2 min 0 W/m 35,4 km/h (5 Bft) 95,74 %
10.03.2019 21:06 3,3 C 1,7 C 1,7 C 89 % 1011,9 hPa 0,0 l/m 0 min 2 min 0 W/m 29,0 km/h (5 Bft) 95,74 %
10.03.2019 21:08 3,3 C 1,7 C 1,7 C 90 % 1011,9 hPa 0,0 l/m 0 min 2 min 0 W/m 22,5 km/h (4 Bft) 97,87 %
10.03.2019 21:10 3,2 C 1,7 C 1,7 C 90 % 1011,9 hPa 0,0 l/m 0 min 2 min 0 W/m 25,7 km/h (4 Bft) 97,87 %
10.03.2019 21:12 3,2 C 2,2 C 1,7 C 90 % 1012,0 hPa 0,0 l/m 0 min 2 min 0 W/m 25,7 km/h (4 Bft) 97,87 %
10.03.2019 21:14 3,2 C 2,2 C 1,7 C 91 % 1011,5 hPa 0,0 l/m 0 min 2 min 0 W/m 19,3 km/h (3 Bft) 97,87 %
10.03.2019 21:16 3,2 C 2,2 C 1,7 C 91 % 1011,4 hPa 0,0 l/m 0 min 2 min 0 W/m 19,3 km/h (3 Bft) 97,83 %
10.03.2019 21:18 3,1 C 2,2 C 1,7 C 91 % 1011,5 hPa 0,0 l/m 0 min 2 min 0 W/m 9,7 km/h (2 Bft) 97,87 %
10.03.2019 21:20 3,1 C 2,2 C 1,7 C 91 % 1012,1 hPa 0,0 l/m 0 min 2 min 0 W/m 19,3 km/h (3 Bft) 97,87 %
10.03.2019 21:22 3,1 C 2,2 C 1,7 C 92 % 1012,1 hPa 0,0 l/m 0 min 0 min 0 W/m 9,7 km/h (2 Bft) 95,74 %
10.03.2019 21:24 3,1 C 2,2 C 1,7 C 92 % 1012,0 hPa 0,0 l/m 0 min 2 min 0 W/m 12,9 km/h (3 Bft) 97,87 %
10.03.2019 21:26 3,1 C 2,2 C 1,7 C 92 % 1011,8 hPa 0,0 l/m 0 min 2 min 0 W/m 16,1 km/h (3 Bft) 97,83 %
10.03.2019 21:28 3,1 C 2,2 C 1,7 C 92 % 1011,6 hPa 0,0 l/m 0 min 0 min 0 W/m 9,7 km/h (2 Bft) 97,87 %
10.03.2019 21:30 3,1 C 2,2 C 1,7 C 92 % 1011,5 hPa 0,0 l/m 0 min 0 min 0 W/m 6,4 km/h (2 Bft) 97,87 %
10.03.2019 21:32 3,0 C 1,7 C 1,7 C 92 % 1011,5 hPa 0,0 l/m 0 min 0 min 0 W/m 6,4 km/h (2 Bft) 97,87 %
10.03.2019 21:34 3,0 C 1,7 C 1,7 C 92 % 1011,6 hPa 0,0 l/m 0 min 0 min 0 W/m 9,7 km/h (2 Bft) 97,87 %
10.03.2019 21:36 3,0 C 1,7 C 1,7 C 92 % 1011,5 hPa 0,0 l/m 0 min 0 min 0 W/m 9,7 km/h (2 Bft) 95,74 %
10.03.2019 21:38 2,9 C 1,7 C 1,7 C 92 % 1011,6 hPa 0,0 l/m 0 min 0 min 0 W/m 9,7 km/h (2 Bft) 97,87 %
10.03.2019 21:40 2,9 C 1,7 C 1,7 C 92 % 1011,5 hPa 0,0 l/m 0 min 2 min 0 W/m 9,7 km/h (2 Bft) 97,87 %
10.03.2019 21:42 2,9 C 1,7 C 1,1 C 92 % 1011,5 hPa 0,0 l/m 0 min 0 min 0 W/m 9,7 km/h (2 Bft) 95,74 %
10.03.2019 21:44 2,9 C 1,7 C 1,7 C 92 % 1011,5 hPa 0,0 l/m 0 min 2 min 0 W/m 12,9 km/h (3 Bft) 97,87 %
10.03.2019 21:46 2,8 C 1,7 C 1,7 C 92 % 1011,5 hPa 0,0 l/m 0 min 0 min 0 W/m 6,4 km/h (2 Bft) 97,87 %
10.03.2019 21:48 2,8 C 1,7 C 1,1 C 92 % 1011,5 hPa 0,0 l/m 0 min 0 min 0 W/m 3,2 km/h (1 Bft) 95,65 %
10.03.2019 21:50 2,8 C 1,7 C 1,1 C 93 % 1011,5 hPa 0,0 l/m 0 min 0 min 0 W/m 6,4 km/h (2 Bft) 97,87 %
10.03.2019 21:52 2,8 C 1,7 C 1,1 C 93 % 1011,5 hPa 0,0 l/m 0 min 0 min 0 W/m 9,7 km/h (2 Bft) 100,00 %
10.03.2019 21:54 2,7 C 1,7 C 1,1 C 93 % 1011,5 hPa 0,0 l/m 0 min 0 min 0 W/m 6,4 km/h (2 Bft) 100,00 %
10.03.2019 21:56 2,7 C 1,7 C 1,7 C 93 % 1011,5 hPa 0,0 l/m 0 min 0 min 0 W/m 6,4 km/h (2 Bft) 100,00 %
10.03.2019 21:58 2,7 C 1,7 C 1,7 C 93 % 1011,4 hPa 0,0 l/m 0 min 0 min 0 W/m 6,4 km/h (2 Bft) 100,00 %
10.03.2019 22:00 2,7 C 1,7 C 1,1 C 93 % 1011,4 hPa 0,0 l/m 0 min 0 min 0 W/m 6,4 km/h (2 Bft) 97,83 %
10.03.2019 22:02 2,7 C 1,7 C 1,1 C 93 % 1011,4 hPa 0,0 l/m 0 min 0 min 0 W/m 9,7 km/h (2 Bft) 100,00 %
10.03.2019 22:04 2,7 C 1,7 C 1,1 C 93 % 1011,5 hPa 0,0 l/m 0 min 0 min 0 W/m 6,4 km/h (2 Bft) 100,00 %
10.03.2019 22:06 2,7 C 1,7 C 1,7 C 93 % 1011,5 hPa 0,0 l/m 0 min 0 min 0 W/m 6,4 km/h (2 Bft) 100,00 %
10.03.2019 22:08 2,7 C 1,7 C 1,1 C 93 % 1011,6 hPa 0,0 l/m 0 min 0 min 0 W/m 6,4 km/h (2 Bft) 100,00 %
10.03.2019 22:10 2,7 C 1,7 C 1,7 C 93 % 1011,6 hPa 0,0 l/m 0 min 0 min 0 W/m 9,7 km/h (2 Bft) 100,00 %
10.03.2019 22:12 2,7 C 1,7 C 1,1 C 93 % 1011,6 hPa 0,0 l/m 0 min 0 min 0 W/m 12,9 km/h (3 Bft) 100,00 %
10.03.2019 22:14 2,7 C 1,7 C 1,1 C 93 % 1011,7 hPa 0,0 l/m 0 min 0 min 0 W/m 9,7 km/h (2 Bft) 100,00 %
10.03.2019 22:16 2,7 C 1,7 C 1,1 C 93 % 1011,7 hPa 0,0 l/m 0 min 0 min 0 W/m 6,4 km/h (2 Bft) 100,00 %
10.03.2019 22:18 2,6 C 1,7 C 1,1 C 93 % 1011,7 hPa 0,0 l/m 0 min 0 min 0 W/m 9,7 km/h (2 Bft) 100,00 %
10.03.2019 22:20 2,7 C 1,7 C 1,7 C 93 % 1011,9 hPa 0,0 l/m 0 min 0 min 0 W/m 9,7 km/h (2 Bft) 100,00 %
10.03.2019 22:22 2,6 C 1,7 C 1,7 C 93 % 1011,7 hPa 0,0 l/m 0 min 0 min 0 W/m 12,9 km/h (3 Bft) 97,87 %
10.03.2019 22:24 2,6 C 2,2 C 1,7 C 93 % 1011,8 hPa 0,0 l/m 0 min 0 min 0 W/m 9,7 km/h (2 Bft) 97,87 %
10.03.2019 22:26 2,6 C 1,7 C 1,7 C 93 % 1011,8 hPa 0,0 l/m 0 min 0 min 0 W/m 9,7 km/h (2 Bft) 95,65 %
10.03.2019 22:28 2,7 C 1,7 C 1,7 C 93 % 1011,9 hPa 0,0 l/m 0 min 0 min 0 W/m 12,9 km/h (3 Bft) 95,74 %
10.03.2019 22:30 2,7 C 1,7 C 1,1 C 93 % 1011,8 hPa 0,0 l/m 0 min 0 min 0 W/m 9,7 km/h (2 Bft) 95,74 %
10.03.2019 22:32 2,7 C 1,7 C 1,1 C 93 % 1011,9 hPa 0,0 l/m 0 min 0 min 0 W/m 6,4 km/h (2 Bft) 93,62 %
10.03.2019 22:34 2,7 C 1,7 C 1,1 C 93 % 1011,9 hPa 0,0 l/m 0 min 0 min 0 W/m 9,7 km/h (2 Bft) 95,74 %
10.03.2019 22:36 2,6 C 1,7 C 1,1 C 93 % 1012,0 hPa 0,0 l/m 0 min 0 min 0 W/m 6,4 km/h (2 Bft) 91,38 %
10.03.2019 22:38 2,6 C 1,7 C 1,1 C 93 % 1012,0 hPa 0,0 l/m 0 min 0 min 0 W/m 9,7 km/h (2 Bft) 97,14 %
10.03.2019 22:40 2,6 C 1,7 C 1,1 C 93 % 1012,0 hPa 0,0 l/m 0 min 0 min 0 W/m 16,1 km/h (3 Bft) 93,62 %
10.03.2019 22:42 2,6 C 1,7 C 1,1 C 93 % 1012,0 hPa 0,0 l/m 0 min 0 min 0 W/m 6,4 km/h (2 Bft) 95,74 %
10.03.2019 22:44 2,6 C 1,7 C 1,1 C 93 % 1011,9 hPa 0,0 l/m 0 min 0 min 0 W/m 9,7 km/h (2 Bft) 95,74 %
10.03.2019 22:46 2,6 C 1,7 C 1,1 C 93 % 1012,1 hPa 0,0 l/m 0 min 0 min 0 W/m 12,9 km/h (3 Bft) 91,49 %
10.03.2019 22:48 2,6 C 1,7 C 1,1 C 93 % 1012,1 hPa 0,0 l/m 0 min 0 min 0 W/m 22,5 km/h (4 Bft) 95,74 %
10.03.2019 22:50 2,6 C 1,7 C 1,1 C 93 % 1012,1 hPa 0,0 l/m 0 min 0 min 0 W/m 12,9 km/h (3 Bft) 95,65 %
10.03.2019 22:52 2,6 C 1,7 C 1,1 C 93 % 1012,0 hPa 0,0 l/m 0 min 0 min 0 W/m 9,7 km/h (2 Bft) 95,74 %
10.03.2019 22:54 2,6 C 1,7 C 1,1 C 93 % 1012,0 hPa 0,0 l/m 0 min 0 min 0 W/m 6,4 km/h (2 Bft) 95,74 %
10.03.2019 22:56 2,6 C 1,7 C 1,1 C 93 % 1012,0 hPa 0,0 l/m 0 min 0 min 0 W/m 12,9 km/h (3 Bft) 95,74 %
10.03.2019 22:58 2,6 C 1,7 C 1,1 C 93 % 1012,0 hPa 0,0 l/m 0 min 0 min 0 W/m 19,3 km/h (3 Bft) 93,62 %
10.03.2019 23:00 2,6 C 1,7 C 1,1 C 93 % 1012,0 hPa 0,0 l/m 0 min 0 min 0 W/m 9,7 km/h (2 Bft) 93,62 %
10.03.2019 23:02 2,6 C 1,7 C 1,1 C 93 % 1012,0 hPa 0,0 l/m 0 min 0 min 0 W/m 12,9 km/h (3 Bft) 95,65 %
10.03.2019 23:04 2,6 C 1,7 C 1,1 C 93 % 1012,0 hPa 0,0 l/m 0 min 0 min 0 W/m 9,7 km/h (2 Bft) 95,74 %
10.03.2019 23:06 2,6 C 1,7 C 1,1 C 93 % 1012,0 hPa 0,0 l/m 0 min 0 min 0 W/m 6,4 km/h (2 Bft) 94,92 %
10.03.2019 23:08 2,6 C 1,7 C 1,1 C 93 % 1012,0 hPa 0,0 l/m 0 min 0 min 0 W/m 12,9 km/h (3 Bft) 94,29 %
10.03.2019 23:10 2,6 C 1,7 C 1,1 C 93 % 1012,0 hPa 0,0 l/m 0 min 0 min 0 W/m 12,9 km/h (3 Bft) 95,74 %
10.03.2019 23:12 2,6 C 1,7 C 1,1 C 93 % 1012,0 hPa 0,0 l/m 0 min 0 min 0 W/m 12,9 km/h (3 Bft) 93,62 %
10.03.2019 23:14 2,6 C 1,7 C 1,1 C 93 % 1012,0 hPa 0,0 l/m 0 min 0 min 0 W/m 6,4 km/h (2 Bft) 95,65 %
10.03.2019 23:16 2,6 C 1,7 C 1,7 C 93 % 1012,0 hPa 0,0 l/m 0 min 0 min 0 W/m 9,7 km/h (2 Bft) 93,62 %
10.03.2019 23:18 2,6 C 2,2 C 1,7 C 93 % 1012,0 hPa 0,0 l/m 0 min 0 min 0 W/m 19,3 km/h (3 Bft) 95,74 %
10.03.2019 23:20 2,7 C 2,2 C 1,7 C 93 % 1012,1 hPa 0,0 l/m 0 min 0 min 0 W/m 19,3 km/h (3 Bft) 93,62 %
10.03.2019 23:22 2,7 C 2,2 C 1,7 C 93 % 1012,0 hPa 0,0 l/m 0 min 0 min 0 W/m 22,5 km/h (4 Bft) 97,87 %
10.03.2019 23:24 2,7 C 2,2 C 1,7 C 94 % 1012,0 hPa 0,0 l/m 0 min 0 min 0 W/m 9,7 km/h (2 Bft) 95,74 %
10.03.2019 23:26 2,7 C 2,2 C 1,7 C 93 % 1012,0 hPa 0,0 l/m 0 min 0 min 0 W/m 16,1 km/h (3 Bft) 93,48 %
10.03.2019 23:28 2,8 C 2,2 C 1,7 C 93 % 1011,9 hPa 0,0 l/m 0 min 0 min 0 W/m 12,9 km/h (3 Bft) 97,87 %
10.03.2019 23:30 2,8 C 2,2 C 1,7 C 94 % 1012,0 hPa 0,0 l/m 0 min 0 min 0 W/m 22,5 km/h (4 Bft) 91,49 %
10.03.2019 23:32 2,9 C 2,8 C 1,7 C 94 % 1012,0 hPa 0,0 l/m 0 min 0 min 0 W/m 12,9 km/h (3 Bft) 97,87 %
10.03.2019 23:34 2,9 C 2,8 C 1,7 C 94 % 1012,0 hPa 0,0 l/m 0 min 0 min 0 W/m 12,9 km/h (3 Bft) 97,87 %
10.03.2019 23:36 2,9 C 2,8 C 1,7 C 94 % 1011,9 hPa 0,0 l/m 0 min 0 min 0 W/m 9,7 km/h (2 Bft) 98,28 %
10.03.2019 23:38 3,0 C 2,8 C 2,2 C 94 % 1011,9 hPa 0,0 l/m 0 min 0 min 0 W/m 9,7 km/h (2 Bft) 97,37 %
10.03.2019 23:40 3,0 C 2,8 C 2,2 C 94 % 1011,8 hPa 0,0 l/m 0 min 0 min 0 W/m 9,7 km/h (2 Bft) 93,62 %
10.03.2019 23:42 3,1 C 2,8 C 2,2 C 94 % 1012,0 hPa 0,2 l/m 0 min 0 min 0 W/m 19,3 km/h (3 Bft) 97,87 %
10.03.2019 23:44 3,1 C 2,8 C 2,2 C 94 % 1012,0 hPa 0,0 l/m 0 min 0 min 0 W/m 16,1 km/h (3 Bft) 97,87 %
10.03.2019 23:46 3,2 C 2,8 C 2,2 C 93 % 1012,0 hPa 0,0 l/m 0 min 2 min 0 W/m 35,4 km/h (5 Bft) 97,87 %
10.03.2019 23:48 3,3 C 3,3 C 2,2 C 94 % 1012,1 hPa 0,0 l/m 0 min 0 min 0 W/m 25,7 km/h (4 Bft) 97,83 %
10.03.2019 23:50 3,4 C 3,3 C 2,2 C 94 % 1012,0 hPa 0,0 l/m 0 min 2 min 0 W/m 25,7 km/h (4 Bft) 95,74 %
10.03.2019 23:52 3,5 C 3,3 C 2,2 C 93 % 1012,4 hPa 0,0 l/m 0 min 2 min 0 W/m 29,0 km/h (5 Bft) 97,87 %
10.03.2019 23:54 3,6 C 3,3 C 2,2 C 93 % 1012,0 hPa 0,0 l/m 0 min 2 min 0 W/m 29,0 km/h (5 Bft) 95,74 %
10.03.2019 23:56 3,7 C 3,3 C 2,2 C 93 % 1011,9 hPa 0,0 l/m 0 min 2 min 0 W/m 19,3 km/h (3 Bft) 95,74 %
10.03.2019 23:58 3,8 C 3,3 C 2,2 C 93 % 1011,8 hPa 0,0 l/m 0 min 2 min 0 W/m 22,5 km/h (4 Bft) 97,87 %
_ Min-Zeit 22:18 21:00 21:42 15:08 11:42 - - - - 04:38 14:50
Minimum _ 2,6 C 1,7 C 1,1 C 70 % 996,8 hPa - - - - 0,0 km/h (0 Bft) 89,13 %
_ Max-Zeit 11:58 11:44 13:22 10:44 00:00 10:58 12:07 05:10 11:54 15:50 00:00
Maximum _ 12,4 C 16,7 C 12,8 C 99 % 1012,6 hPa 0,4 l/m 3 min 5 min 708 W/m 86,9 km/h
S-SW (9 Bft)
100,00 %
Durchschnitt _ 7,3 C 6,7 C 5,9 C 88 % 1005,1 hPa #11,4 l/m #2:20 h #11:28 h 156 W/m 21,8 km/h (4 Bft) 97,18 %
© 2019 W. Hausmann